<?xml version="1.0" encoding="UTF-8"?>
<gpx version="1.0" creator="http://thydzik.com" xmlns:xsi="http://www.w3.org/2001/XMLSchema-instance" xmlns="http://www.topografix.com/GPX/1/0" xsi:schemaLocation="http://www.topografix.com/GPX/1/0 http://www.topografix.com/GPX/1/0/gpx.xsd">
  <url></url>
  <time>2024-01-11T12:52:53Z</time>
  <trk>
    <name></name>
    <trkseg>
      <trkpt lat="40.8234361207328" lon="-4.01712053884063">
        <time>2024-01-11T12:52:53Z</time>
      </trkpt>
      <trkpt lat="40.8234284129675" lon="-4.0171051020425">
        <time>2024-01-11T12:52:53Z</time>
      </trkpt>
      <trkpt lat="40.8234324493268" lon="-4.01703178026398">
        <time>2024-01-11T12:52:53Z</time>
      </trkpt>
      <trkpt lat="40.8234010793661" lon="-4.01698368159066">
        <time>2024-01-11T12:52:53Z</time>
      </trkpt>
      <trkpt lat="40.8234141127593" lon="-4.01697547089431">
        <time>2024-01-11T12:52:53Z</time>
      </trkpt>
      <trkpt lat="40.8234276706748" lon="-4.01697567800978">
        <time>2024-01-11T12:52:53Z</time>
      </trkpt>
      <trkpt lat="40.8234402560976" lon="-4.01695802023936">
        <time>2024-01-11T12:52:53Z</time>
      </trkpt>
      <trkpt lat="40.8234260831081" lon="-4.01686346551538">
        <time>2024-01-11T12:52:53Z</time>
      </trkpt>
      <trkpt lat="40.8234389778315" lon="-4.01671838003066">
        <time>2024-01-11T12:52:53Z</time>
      </trkpt>
      <trkpt lat="40.8234405933301" lon="-4.01653489019414">
        <time>2024-01-11T12:52:53Z</time>
      </trkpt>
      <trkpt lat="40.8234071599068" lon="-4.01637380495543">
        <time>2024-01-11T12:52:53Z</time>
      </trkpt>
      <trkpt lat="40.823396890136" lon="-4.01622071963646">
        <time>2024-01-11T12:52:53Z</time>
      </trkpt>
      <trkpt lat="40.8234328133874" lon="-4.01609892461417">
        <time>2024-01-11T12:52:53Z</time>
      </trkpt>
      <trkpt lat="40.8234626596381" lon="-4.01600762254539">
        <time>2024-01-11T12:52:53Z</time>
      </trkpt>
      <trkpt lat="40.8234579953878" lon="-4.0158775619445">
        <time>2024-01-11T12:52:53Z</time>
      </trkpt>
      <trkpt lat="40.8234188205032" lon="-4.01570874301928">
        <time>2024-01-11T12:52:53Z</time>
      </trkpt>
      <trkpt lat="40.823402674815" lon="-4.01556321463428">
        <time>2024-01-11T12:52:53Z</time>
      </trkpt>
      <trkpt lat="40.8234215773927" lon="-4.01539528120308">
        <time>2024-01-11T12:52:53Z</time>
      </trkpt>
      <trkpt lat="40.8234694514713" lon="-4.01523543560501">
        <time>2024-01-11T12:52:53Z</time>
      </trkpt>
      <trkpt lat="40.823476603569" lon="-4.01508261575949">
        <time>2024-01-11T12:52:53Z</time>
      </trkpt>
      <trkpt lat="40.823443907274" lon="-4.01483743156241">
        <time>2024-01-11T12:52:53Z</time>
      </trkpt>
      <trkpt lat="40.8234346431616" lon="-4.01456966514499">
        <time>2024-01-11T12:52:53Z</time>
      </trkpt>
      <trkpt lat="40.8234241023264" lon="-4.01444716164508">
        <time>2024-01-11T12:52:53Z</time>
      </trkpt>
      <trkpt lat="40.8234252441092" lon="-4.01431718961672">
        <time>2024-01-11T12:52:53Z</time>
      </trkpt>
      <trkpt lat="40.8234317234723" lon="-4.01424082389612">
        <time>2024-01-11T12:52:53Z</time>
      </trkpt>
      <trkpt lat="40.8233452780681" lon="-4.01416304359356">
        <time>2024-01-11T12:52:53Z</time>
      </trkpt>
      <trkpt lat="40.8232585640287" lon="-4.01411584507435">
        <time>2024-01-11T12:52:53Z</time>
      </trkpt>
      <trkpt lat="40.8231486187863" lon="-4.01406829307461">
        <time>2024-01-11T12:52:53Z</time>
      </trkpt>
      <trkpt lat="40.8230848673222" lon="-4.01405202991153">
        <time>2024-01-11T12:52:53Z</time>
      </trkpt>
      <trkpt lat="40.8230275950272" lon="-4.01395940149175">
        <time>2024-01-11T12:52:53Z</time>
      </trkpt>
      <trkpt lat="40.8230001671459" lon="-4.01377547075526">
        <time>2024-01-11T12:52:53Z</time>
      </trkpt>
      <trkpt lat="40.822954980021" lon="-4.01362950189391">
        <time>2024-01-11T12:52:53Z</time>
      </trkpt>
      <trkpt lat="40.82292160961" lon="-4.01346077385325">
        <time>2024-01-11T12:52:53Z</time>
      </trkpt>
      <trkpt lat="40.8229219487022" lon="-4.01327947059213">
        <time>2024-01-11T12:52:53Z</time>
      </trkpt>
      <trkpt lat="40.8229106940508" lon="-4.01310278370213">
        <time>2024-01-11T12:52:53Z</time>
      </trkpt>
      <trkpt lat="40.8228564778044" lon="-4.01293982983412">
        <time>2024-01-11T12:52:53Z</time>
      </trkpt>
      <trkpt lat="40.8228120942663" lon="-4.0127021176723">
        <time>2024-01-11T12:52:53Z</time>
      </trkpt>
      <trkpt lat="40.8227436075336" lon="-4.0125634421934">
        <time>2024-01-11T12:52:53Z</time>
      </trkpt>
      <trkpt lat="40.8227160433486" lon="-4.01239480344706">
        <time>2024-01-11T12:52:53Z</time>
      </trkpt>
      <trkpt lat="40.8226652477196" lon="-4.01222581187891">
        <time>2024-01-11T12:52:53Z</time>
      </trkpt>
      <trkpt lat="40.8226145188479" lon="-4.01204917523841">
        <time>2024-01-11T12:52:53Z</time>
      </trkpt>
      <trkpt lat="40.8225519061139" lon="-4.01190294372297">
        <time>2024-01-11T12:52:53Z</time>
      </trkpt>
      <trkpt lat="40.8225479740671" lon="-4.01168878658657">
        <time>2024-01-11T12:52:53Z</time>
      </trkpt>
      <trkpt lat="40.8224969094961" lon="-4.01155037721975">
        <time>2024-01-11T12:52:53Z</time>
      </trkpt>
      <trkpt lat="40.8224455099217" lon="-4.01145019460268">
        <time>2024-01-11T12:52:53Z</time>
      </trkpt>
      <trkpt lat="40.8223889720463" lon="-4.01127347096007">
        <time>2024-01-11T12:52:53Z</time>
      </trkpt>
      <trkpt lat="40.822332099167" lon="-4.01113497409169">
        <time>2024-01-11T12:52:53Z</time>
      </trkpt>
      <trkpt lat="40.8223045328732" lon="-4.01096633693985">
        <time>2024-01-11T12:52:53Z</time>
      </trkpt>
      <trkpt lat="40.8221871498126" lon="-4.01082486145584">
        <time>2024-01-11T12:52:53Z</time>
      </trkpt>
      <trkpt lat="40.822039935863" lon="-4.01077502718245">
        <time>2024-01-11T12:52:53Z</time>
      </trkpt>
      <trkpt lat="40.8219410669018" lon="-4.01071006075194">
        <time>2024-01-11T12:52:53Z</time>
      </trkpt>
      <trkpt lat="40.8217908921318" lon="-4.01065423211643">
        <time>2024-01-11T12:52:53Z</time>
      </trkpt>
      <trkpt lat="40.8216784825182" lon="-4.0105870772911">
        <time>2024-01-11T12:52:53Z</time>
      </trkpt>
      <trkpt lat="40.8215844280399" lon="-4.01048846878632">
        <time>2024-01-11T12:52:53Z</time>
      </trkpt>
      <trkpt lat="40.8215662866598" lon="-4.0103663756885">
        <time>2024-01-11T12:52:53Z</time>
      </trkpt>
      <trkpt lat="40.8214690255691" lon="-4.01019668407503">
        <time>2024-01-11T12:52:53Z</time>
      </trkpt>
      <trkpt lat="40.8214186947497" lon="-4.00997418094847">
        <time>2024-01-11T12:52:53Z</time>
      </trkpt>
      <trkpt lat="40.8213561461795" lon="-4.00982030879326">
        <time>2024-01-11T12:52:53Z</time>
      </trkpt>
      <trkpt lat="40.8212760402879" lon="-4.00968146324508">
        <time>2024-01-11T12:52:53Z</time>
      </trkpt>
      <trkpt lat="40.8211730371977" lon="-4.0095040401957">
        <time>2024-01-11T12:52:53Z</time>
      </trkpt>
      <trkpt lat="40.8210709025172" lon="-4.00922723067533">
        <time>2024-01-11T12:52:53Z</time>
      </trkpt>
      <trkpt lat="40.8209685667571" lon="-4.00897335742661">
        <time>2024-01-11T12:52:53Z</time>
      </trkpt>
      <trkpt lat="40.8208950023172" lon="-4.00875050513447">
        <time>2024-01-11T12:52:53Z</time>
      </trkpt>
      <trkpt lat="40.8208498087267" lon="-4.00860454419811">
        <time>2024-01-11T12:52:53Z</time>
      </trkpt>
      <trkpt lat="40.820792732259" lon="-4.00848898814807">
        <time>2024-01-11T12:52:53Z</time>
      </trkpt>
      <trkpt lat="40.8207178984333" lon="-4.00841139418761">
        <time>2024-01-11T12:52:53Z</time>
      </trkpt>
      <trkpt lat="40.8206317159699" lon="-4.00830304418713">
        <time>2024-01-11T12:52:53Z</time>
      </trkpt>
      <trkpt lat="40.8205687646329" lon="-4.00819504599143">
        <time>2024-01-11T12:52:53Z</time>
      </trkpt>
      <trkpt lat="40.8204885899926" lon="-4.00806384911116">
        <time>2024-01-11T12:52:53Z</time>
      </trkpt>
      <trkpt lat="40.8204022737212" lon="-4.00797079009623">
        <time>2024-01-11T12:52:53Z</time>
      </trkpt>
      <trkpt lat="40.8203341815057" lon="-4.00778625399296">
        <time>2024-01-11T12:52:53Z</time>
      </trkpt>
      <trkpt lat="40.8202601477588" lon="-4.00761692056635">
        <time>2024-01-11T12:52:53Z</time>
      </trkpt>
      <trkpt lat="40.8201910544249" lon="-4.00754706108787">
        <time>2024-01-11T12:52:53Z</time>
      </trkpt>
      <trkpt lat="40.8201040039857" lon="-4.00753809869133">
        <time>2024-01-11T12:52:53Z</time>
      </trkpt>
      <trkpt lat="40.8200343769738" lon="-4.00752939978455">
        <time>2024-01-11T12:52:53Z</time>
      </trkpt>
      <trkpt lat="40.8199652168797" lon="-4.00746718567003">
        <time>2024-01-11T12:52:53Z</time>
      </trkpt>
      <trkpt lat="40.8199258294357" lon="-4.00732131542553">
        <time>2024-01-11T12:52:53Z</time>
      </trkpt>
      <trkpt lat="40.819857069338" lon="-4.00721323150447">
        <time>2024-01-11T12:52:53Z</time>
      </trkpt>
      <trkpt lat="40.819776626837" lon="-4.00711261725058">
        <time>2024-01-11T12:52:53Z</time>
      </trkpt>
      <trkpt lat="40.8197252232997" lon="-4.00701244211639">
        <time>2024-01-11T12:52:53Z</time>
      </trkpt>
      <trkpt lat="40.8196972509078" lon="-4.0068896831925">
        <time>2024-01-11T12:52:53Z</time>
      </trkpt>
      <trkpt lat="40.819628290426" lon="-4.00680453507125">
        <time>2024-01-11T12:52:53Z</time>
      </trkpt>
      <trkpt lat="40.8195587299994" lon="-4.00678819201513">
        <time>2024-01-11T12:52:53Z</time>
      </trkpt>
      <trkpt lat="40.8194371658765" lon="-4.00674047931846">
        <time>2024-01-11T12:52:53Z</time>
      </trkpt>
      <trkpt lat="40.8193326919145" lon="-4.00673125484764">
        <time>2024-01-11T12:52:53Z</time>
      </trkpt>
      <trkpt lat="40.8192109944631" lon="-4.00669883232044">
        <time>2024-01-11T12:52:53Z</time>
      </trkpt>
      <trkpt lat="40.819130351557" lon="-4.00662115448722">
        <time>2024-01-11T12:52:53Z</time>
      </trkpt>
      <trkpt lat="40.8190326183445" lon="-4.00650498900749">
        <time>2024-01-11T12:52:53Z</time>
      </trkpt>
      <trkpt lat="40.8189352181444" lon="-4.0063505992848">
        <time>2024-01-11T12:52:53Z</time>
      </trkpt>
      <trkpt lat="40.8188955627806" lon="-4.00623531159174">
        <time>2024-01-11T12:52:53Z</time>
      </trkpt>
      <trkpt lat="40.8189025696364" lon="-4.00609779085232">
        <time>2024-01-11T12:52:53Z</time>
      </trkpt>
      <trkpt lat="40.818915450742" lon="-4.00595271284611">
        <time>2024-01-11T12:52:53Z</time>
      </trkpt>
      <trkpt lat="40.8189166494479" lon="-4.00581510436067">
        <time>2024-01-11T12:52:53Z</time>
      </trkpt>
      <trkpt lat="40.8189062323612" lon="-4.00567732055409">
        <time>2024-01-11T12:52:53Z</time>
      </trkpt>
      <trkpt lat="40.8189073641662" lon="-4.00554735699172">
        <time>2024-01-11T12:52:53Z</time>
      </trkpt>
      <trkpt lat="40.8189084292607" lon="-4.00542503833802">
        <time>2024-01-11T12:52:53Z</time>
      </trkpt>
      <trkpt lat="40.8189440083266" lon="-4.00534147002266">
        <time>2024-01-11T12:52:53Z</time>
      </trkpt>
      <trkpt lat="40.8189740457272" lon="-4.00522723430112">
        <time>2024-01-11T12:52:53Z</time>
      </trkpt>
      <trkpt lat="40.8189810513843" lon="-4.00508971326936">
        <time>2024-01-11T12:52:53Z</time>
      </trkpt>
      <trkpt lat="40.818988189943" lon="-4.00493690235268">
        <time>2024-01-11T12:52:53Z</time>
      </trkpt>
      <trkpt lat="40.8190130843506" lon="-4.00474612948755">
        <time>2024-01-11T12:52:53Z</time>
      </trkpt>
      <trkpt lat="40.8190316385567" lon="-4.00461642837228">
        <time>2024-01-11T12:52:53Z</time>
      </trkpt>
      <trkpt lat="40.8190386434877" lon="-4.00447890714268">
        <time>2024-01-11T12:52:53Z</time>
      </trkpt>
      <trkpt lat="40.8190514560713" lon="-4.00434147342117">
        <time>2024-01-11T12:52:53Z</time>
      </trkpt>
      <trkpt lat="40.8190644014581" lon="-4.00418874976984">
        <time>2024-01-11T12:52:53Z</time>
      </trkpt>
      <trkpt lat="40.8191119276502" lon="-4.00406713090888">
        <time>2024-01-11T12:52:53Z</time>
      </trkpt>
      <trkpt lat="40.8191418308625" lon="-4.00396818419299">
        <time>2024-01-11T12:52:53Z</time>
      </trkpt>
      <trkpt lat="40.8191542440777" lon="-4.00387661983619">
        <time>2024-01-11T12:52:53Z</time>
      </trkpt>
      <trkpt lat="40.8192015041239" lon="-4.00378558039738">
        <time>2024-01-11T12:52:53Z</time>
      </trkpt>
      <trkpt lat="40.8192140500944" lon="-4.00367872601135">
        <time>2024-01-11T12:52:53Z</time>
      </trkpt>
      <trkpt lat="40.8192323373417" lon="-4.00357960401449">
        <time>2024-01-11T12:52:53Z</time>
      </trkpt>
      <trkpt lat="40.8192797300285" lon="-4.00347327432804">
        <time>2024-01-11T12:52:53Z</time>
      </trkpt>
      <trkpt lat="40.8193093005851" lon="-4.00341255192159">
        <time>2024-01-11T12:52:53Z</time>
      </trkpt>
      <trkpt lat="40.8193272554746" lon="-4.00335165455099">
        <time>2024-01-11T12:52:53Z</time>
      </trkpt>
      <trkpt lat="40.8193396682042" lon="-4.00326008981509">
        <time>2024-01-11T12:52:53Z</time>
      </trkpt>
      <trkpt lat="40.8193876583098" lon="-4.00308495493756">
        <time>2024-01-11T12:52:53Z</time>
      </trkpt>
      <trkpt lat="40.8193945950236" lon="-4.00295507775305">
        <time>2024-01-11T12:52:53Z</time>
      </trkpt>
      <trkpt lat="40.819401332411" lon="-4.00284813547468">
        <time>2024-01-11T12:52:53Z</time>
      </trkpt>
      <trkpt lat="40.8194079369242" lon="-4.00275648313202">
        <time>2024-01-11T12:52:53Z</time>
      </trkpt>
      <trkpt lat="40.8194144749824" lon="-4.0026724757503">
        <time>2024-01-11T12:52:53Z</time>
      </trkpt>
      <trkpt lat="40.8193979808321" lon="-4.00256518385989">
        <time>2024-01-11T12:52:53Z</time>
      </trkpt>
      <trkpt lat="40.81937574513" lon="-4.00245015966693">
        <time>2024-01-11T12:52:53Z</time>
      </trkpt>
      <trkpt lat="40.8193588525981" lon="-4.00238873773967">
        <time>2024-01-11T12:52:53Z</time>
      </trkpt>
      <trkpt lat="40.8192837491168" lon="-4.00234173212104">
        <time>2024-01-11T12:52:53Z</time>
      </trkpt>
      <trkpt lat="40.8192553072423" lon="-4.00227249061971">
        <time>2024-01-11T12:52:53Z</time>
      </trkpt>
      <trkpt lat="40.8192150506295" lon="-4.00222600934447">
        <time>2024-01-11T12:52:53Z</time>
      </trkpt>
      <trkpt lat="40.8191813979765" lon="-4.00208787601717">
        <time>2024-01-11T12:52:53Z</time>
      </trkpt>
      <trkpt lat="40.8191415393206" lon="-4.00199552519995">
        <time>2024-01-11T12:52:53Z</time>
      </trkpt>
      <trkpt lat="40.8191188387217" lon="-4.00193401626973">
        <time>2024-01-11T12:52:53Z</time>
      </trkpt>
      <trkpt lat="40.8190672979714" lon="-4.00184913592747">
        <time>2024-01-11T12:52:53Z</time>
      </trkpt>
      <trkpt lat="40.8190218965809" lon="-4.00172611834331">
        <time>2024-01-11T12:52:53Z</time>
      </trkpt>
      <trkpt lat="40.8189936532717" lon="-4.00163394256798">
        <time>2024-01-11T12:52:53Z</time>
      </trkpt>
      <trkpt lat="40.8189425764356" lon="-4.00149554811145">
        <time>2024-01-11T12:52:53Z</time>
      </trkpt>
      <trkpt lat="40.818914995893" lon="-4.00132692327798">
        <time>2024-01-11T12:52:53Z</time>
      </trkpt>
      <trkpt lat="40.8188994947054" lon="-4.00110495862865">
        <time>2024-01-11T12:52:53Z</time>
      </trkpt>
      <trkpt lat="40.8188951448785" lon="-4.00093668302651">
        <time>2024-01-11T12:52:53Z</time>
      </trkpt>
      <trkpt lat="40.8188964038589" lon="-4.0007914294463">
        <time>2024-01-11T12:52:53Z</time>
      </trkpt>
      <trkpt lat="40.8188973976617" lon="-4.00067675556074">
        <time>2024-01-11T12:52:53Z</time>
      </trkpt>
      <trkpt lat="40.8189099407543" lon="-4.00056990101771">
        <time>2024-01-11T12:52:53Z</time>
      </trkpt>
      <trkpt lat="40.8189578605569" lon="-4.00040241017636">
        <time>2024-01-11T12:52:53Z</time>
      </trkpt>
      <trkpt lat="40.8190292100726" lon="-4.00021233299215">
        <time>2024-01-11T12:52:53Z</time>
      </trkpt>
      <trkpt lat="40.8190368718332" lon="-3.99999836176467">
        <time>2024-01-11T12:52:53Z</time>
      </trkpt>
      <trkpt lat="40.8190382620254" lon="-3.99983781794584">
        <time>2024-01-11T12:52:53Z</time>
      </trkpt>
      <trkpt lat="40.8190279701614" lon="-3.9996847447919">
        <time>2024-01-11T12:52:53Z</time>
      </trkpt>
      <trkpt lat="40.8189770894937" lon="-3.9995234168984">
        <time>2024-01-11T12:52:53Z</time>
      </trkpt>
      <trkpt lat="40.8189551153966" lon="-3.99937781464787">
        <time>2024-01-11T12:52:53Z</time>
      </trkpt>
      <trkpt lat="40.8189215916175" lon="-3.99922439336903">
        <time>2024-01-11T12:52:53Z</time>
      </trkpt>
      <trkpt lat="40.8188881337755" lon="-3.99906332731227">
        <time>2024-01-11T12:52:53Z</time>
      </trkpt>
      <trkpt lat="40.8188891919955" lon="-3.99894100845155">
        <time>2024-01-11T12:52:53Z</time>
      </trkpt>
      <trkpt lat="40.8188274880745" lon="-3.99868776826615">
        <time>2024-01-11T12:52:53Z</time>
      </trkpt>
      <trkpt lat="40.8187709303833" lon="-3.99851106472997">
        <time>2024-01-11T12:52:53Z</time>
      </trkpt>
      <trkpt lat="40.8186852671872" lon="-3.99834157131936">
        <time>2024-01-11T12:52:53Z</time>
      </trkpt>
      <trkpt lat="40.8186339220172" lon="-3.9982337595599">
        <time>2024-01-11T12:52:53Z</time>
      </trkpt>
      <trkpt lat="40.8185654175782" lon="-3.9980951073999">
        <time>2024-01-11T12:52:53Z</time>
      </trkpt>
      <trkpt lat="40.8185202764176" lon="-3.99794151367292">
        <time>2024-01-11T12:52:53Z</time>
      </trkpt>
      <trkpt lat="40.8184752011074" lon="-3.99778027526655">
        <time>2024-01-11T12:52:53Z</time>
      </trkpt>
      <trkpt lat="40.8184594288946" lon="-3.99758889230493">
        <time>2024-01-11T12:52:53Z</time>
      </trkpt>
      <trkpt lat="40.8184735538806" lon="-3.99729856058843">
        <time>2024-01-11T12:52:53Z</time>
      </trkpt>
      <trkpt lat="40.8184923637895" lon="-3.99713827872686">
        <time>2024-01-11T12:52:53Z</time>
      </trkpt>
      <trkpt lat="40.8185055636571" lon="-3.99695497520517">
        <time>2024-01-11T12:52:53Z</time>
      </trkpt>
      <trkpt lat="40.8185359227581" lon="-3.99680251181486">
        <time>2024-01-11T12:52:53Z</time>
      </trkpt>
      <trkpt lat="40.8185603418629" lon="-3.99666525120675">
        <time>2024-01-11T12:52:53Z</time>
      </trkpt>
      <trkpt lat="40.8186019203946" lon="-3.99655883067412">
        <time>2024-01-11T12:52:53Z</time>
      </trkpt>
      <trkpt lat="40.8186500322937" lon="-3.99636840287702">
        <time>2024-01-11T12:52:53Z</time>
      </trkpt>
      <trkpt lat="40.8186924020013" lon="-3.99617024305892">
        <time>2024-01-11T12:52:53Z</time>
      </trkpt>
      <trkpt lat="40.8187347054331" lon="-3.99597972790053">
        <time>2024-01-11T12:52:53Z</time>
      </trkpt>
      <trkpt lat="40.8187366833538" lon="-3.99575038034458">
        <time>2024-01-11T12:52:53Z</time>
      </trkpt>
      <trkpt lat="40.8187389903519" lon="-3.99548280816718">
        <time>2024-01-11T12:52:53Z</time>
      </trkpt>
      <trkpt lat="40.8187410990644" lon="-3.99523817072074">
        <time>2024-01-11T12:52:53Z</time>
      </trkpt>
      <trkpt lat="40.8187430755114" lon="-3.99500882309116">
        <time>2024-01-11T12:52:53Z</time>
      </trkpt>
      <trkpt lat="40.8187565354503" lon="-3.9947949386969">
        <time>2024-01-11T12:52:53Z</time>
      </trkpt>
      <trkpt lat="40.8187526373383" lon="-3.99457314921985">
        <time>2024-01-11T12:52:53Z</time>
      </trkpt>
      <trkpt lat="40.8187952014714" lon="-3.99435205310707">
        <time>2024-01-11T12:52:53Z</time>
      </trkpt>
      <trkpt lat="40.8188260836988" lon="-3.99413842833805">
        <time>2024-01-11T12:52:53Z</time>
      </trkpt>
      <trkpt lat="40.8188107002598" lon="-3.99390117551798">
        <time>2024-01-11T12:52:53Z</time>
      </trkpt>
      <trkpt lat="40.8188151849169" lon="-3.99375632611791">
        <time>2024-01-11T12:52:53Z</time>
      </trkpt>
      <trkpt lat="40.8188174051559" lon="-3.99368461270645">
        <time>2024-01-11T12:52:53Z</time>
      </trkpt>
      <trkpt lat="40.8188187450246" lon="-3.99364133443226">
        <time>2024-01-11T12:52:53Z</time>
      </trkpt>
      <trkpt lat="40.8188225639254" lon="-3.99351101251644">
        <time>2024-01-11T12:52:53Z</time>
      </trkpt>
      <trkpt lat="40.818843824951" lon="-3.99349149774249">
        <time>2024-01-11T12:52:53Z</time>
      </trkpt>
      <trkpt lat="40.8189494470111" lon="-3.99347324169441">
        <time>2024-01-11T12:52:53Z</time>
      </trkpt>
      <trkpt lat="40.8190813208966" lon="-3.99346826814434">
        <time>2024-01-11T12:52:53Z</time>
      </trkpt>
      <trkpt lat="40.8192464134558" lon="-3.99345486576969">
        <time>2024-01-11T12:52:53Z</time>
      </trkpt>
      <trkpt lat="40.8194402138807" lon="-3.99343197557923">
        <time>2024-01-11T12:52:53Z</time>
      </trkpt>
      <trkpt lat="40.8196332269221" lon="-3.99341303996954">
        <time>2024-01-11T12:52:53Z</time>
      </trkpt>
      <trkpt lat="40.8198217462272" lon="-3.9933910623677">
        <time>2024-01-11T12:52:53Z</time>
      </trkpt>
      <trkpt lat="40.8200884182843" lon="-3.99334457565978">
        <time>2024-01-11T12:52:53Z</time>
      </trkpt>
      <trkpt lat="40.8202639677216" lon="-3.99332154586649">
        <time>2024-01-11T12:52:53Z</time>
      </trkpt>
      <trkpt lat="40.8203613726337" lon="-3.99332299798042">
        <time>2024-01-11T12:52:53Z</time>
      </trkpt>
      <trkpt lat="40.8204576375354" lon="-3.99338071758689">
        <time>2024-01-11T12:52:53Z</time>
      </trkpt>
      <trkpt lat="40.8206029688344" lon="-3.99347510730054">
        <time>2024-01-11T12:52:53Z</time>
      </trkpt>
      <trkpt lat="40.8207295992609" lon="-3.99355076257741">
        <time>2024-01-11T12:52:53Z</time>
      </trkpt>
      <trkpt lat="40.820842830446" lon="-3.9936145398874">
        <time>2024-01-11T12:52:53Z</time>
      </trkpt>
      <trkpt lat="40.8210222871663" lon="-3.99368266591292">
        <time>2024-01-11T12:52:53Z</time>
      </trkpt>
      <trkpt lat="40.8211000058012" lon="-3.99366795972321">
        <time>2024-01-11T12:52:53Z</time>
      </trkpt>
      <trkpt lat="40.8211576659412" lon="-3.99361698948891">
        <time>2024-01-11T12:52:53Z</time>
      </trkpt>
      <trkpt lat="40.8212372078712" lon="-3.99343009540796">
        <time>2024-01-11T12:52:53Z</time>
      </trkpt>
      <trkpt lat="40.8213238313471" lon="-3.99317491352772">
        <time>2024-01-11T12:52:53Z</time>
      </trkpt>
      <trkpt lat="40.8213574023854" lon="-3.99304717715869">
        <time>2024-01-11T12:52:53Z</time>
      </trkpt>
      <trkpt lat="40.8213585784829" lon="-3.99291040877457">
        <time>2024-01-11T12:52:53Z</time>
      </trkpt>
      <trkpt lat="40.821359827909" lon="-3.99276509235758">
        <time>2024-01-11T12:52:53Z</time>
      </trkpt>
      <trkpt lat="40.8213614445416" lon="-3.99257703580441">
        <time>2024-01-11T12:52:53Z</time>
      </trkpt>
      <trkpt lat="40.8213763420353" lon="-3.99235498056473">
        <time>2024-01-11T12:52:53Z</time>
      </trkpt>
      <trkpt lat="40.8213843047686" lon="-3.99218411669912">
        <time>2024-01-11T12:52:53Z</time>
      </trkpt>
      <trkpt lat="40.8213788393061" lon="-3.99206434759527">
        <time>2024-01-11T12:52:53Z</time>
      </trkpt>
      <trkpt lat="40.8213538193026" lon="-3.99195283650426">
        <time>2024-01-11T12:52:53Z</time>
      </trkpt>
      <trkpt lat="40.8213290928722" lon="-3.99180713340203">
        <time>2024-01-11T12:52:53Z</time>
      </trkpt>
      <trkpt lat="40.8213307813475" lon="-3.99161052885712">
        <time>2024-01-11T12:52:53Z</time>
      </trkpt>
      <trkpt lat="40.8213650845835" lon="-3.99139731136293">
        <time>2024-01-11T12:52:53Z</time>
      </trkpt>
      <trkpt lat="40.8214058810913" lon="-3.99118419024434">
        <time>2024-01-11T12:52:53Z</time>
      </trkpt>
      <trkpt lat="40.8214334698046" lon="-3.99099651980949">
        <time>2024-01-11T12:52:53Z</time>
      </trkpt>
      <trkpt lat="40.8214735321089" lon="-3.99086887865699">
        <time>2024-01-11T12:52:53Z</time>
      </trkpt>
      <trkpt lat="40.8214552246334" lon="-3.99073182026744">
        <time>2024-01-11T12:52:53Z</time>
      </trkpt>
      <trkpt lat="40.8213912413495" lon="-3.99061973023586">
        <time>2024-01-11T12:52:53Z</time>
      </trkpt>
      <trkpt lat="40.8213272579535" lon="-3.99050764041875">
        <time>2024-01-11T12:52:53Z</time>
      </trkpt>
      <trkpt lat="40.8212764084041" lon="-3.99037864782664">
        <time>2024-01-11T12:52:53Z</time>
      </trkpt>
      <trkpt lat="40.8212386926454" lon="-3.99023275242018">
        <time>2024-01-11T12:52:53Z</time>
      </trkpt>
      <trkpt lat="40.8212140373235" lon="-3.99007850215308">
        <time>2024-01-11T12:52:53Z</time>
      </trkpt>
      <trkpt lat="40.8211831812407" lon="-3.98988996347909">
        <time>2024-01-11T12:52:53Z</time>
      </trkpt>
      <trkpt lat="40.8211198565135" lon="-3.9897009426874">
        <time>2024-01-11T12:52:53Z</time>
      </trkpt>
      <trkpt lat="40.8210498913058" lon="-3.9895289217985">
        <time>2024-01-11T12:52:53Z</time>
      </trkpt>
      <trkpt lat="40.8209996997837" lon="-3.98932299858764">
        <time>2024-01-11T12:52:53Z</time>
      </trkpt>
      <trkpt lat="40.820942794561" lon="-3.98914262322294">
        <time>2024-01-11T12:52:53Z</time>
      </trkpt>
      <trkpt lat="40.8208863282879" lon="-3.98891096031862">
        <time>2024-01-11T12:52:53Z</time>
      </trkpt>
      <trkpt lat="40.8208297883576" lon="-3.9886878457662">
        <time>2024-01-11T12:52:53Z</time>
      </trkpt>
      <trkpt lat="40.8207863085008" lon="-3.98845637629385">
        <time>2024-01-11T12:52:53Z</time>
      </trkpt>
      <trkpt lat="40.8207620165688" lon="-3.98825938789039">
        <time>2024-01-11T12:52:53Z</time>
      </trkpt>
      <trkpt lat="40.8207379437187" lon="-3.98803675575273">
        <time>2024-01-11T12:52:53Z</time>
      </trkpt>
      <trkpt lat="40.8207396988742" lon="-3.98783160477136">
        <time>2024-01-11T12:52:53Z</time>
      </trkpt>
      <trkpt lat="40.820748239766" lon="-3.98759235818727">
        <time>2024-01-11T12:52:53Z</time>
      </trkpt>
      <trkpt lat="40.8207694751468" lon="-3.987387495838">
        <time>2024-01-11T12:52:53Z</time>
      </trkpt>
      <trkpt lat="40.8208239898947" lon="-3.98720981290814">
        <time>2024-01-11T12:52:53Z</time>
      </trkpt>
      <trkpt lat="40.8209090576572" lon="-3.98701340551698">
        <time>2024-01-11T12:52:53Z</time>
      </trkpt>
      <trkpt lat="40.8210144906113" lon="-3.98683543672825">
        <time>2024-01-11T12:52:53Z</time>
      </trkpt>
      <trkpt lat="40.821126782147" lon="-3.98661482348092">
        <time>2024-01-11T12:52:53Z</time>
      </trkpt>
      <trkpt lat="40.8212257208227" lon="-3.98643675733443">
        <time>2024-01-11T12:52:53Z</time>
      </trkpt>
      <trkpt lat="40.8213116718812" lon="-3.9862584984117">
        <time>2024-01-11T12:52:53Z</time>
      </trkpt>
      <trkpt lat="40.8213720129411" lon="-3.98603711438707">
        <time>2024-01-11T12:52:53Z</time>
      </trkpt>
      <trkpt lat="40.8213995203253" lon="-3.98585798979585">
        <time>2024-01-11T12:52:53Z</time>
      </trkpt>
      <trkpt lat="40.8214006879017" lon="-3.98572122102861">
        <time>2024-01-11T12:52:53Z</time>
      </trkpt>
      <trkpt lat="40.8213826661208" lon="-3.98554997189803">
        <time>2024-01-11T12:52:53Z</time>
      </trkpt>
      <trkpt lat="40.8213384505535" lon="-3.98540398283222">
        <time>2024-01-11T12:52:53Z</time>
      </trkpt>
      <trkpt lat="40.8212681142291" lon="-3.98527470592378">
        <time>2024-01-11T12:52:53Z</time>
      </trkpt>
      <trkpt lat="40.8211852279466" lon="-3.98509394912814">
        <time>2024-01-11T12:52:53Z</time>
      </trkpt>
      <trkpt lat="40.8210828603466" lon="-3.98491290480808">
        <time>2024-01-11T12:52:53Z</time>
      </trkpt>
      <trkpt lat="40.8209678695663" lon="-3.98468892912165">
        <time>2024-01-11T12:52:53Z</time>
      </trkpt>
      <trkpt lat="40.8209043904974" lon="-3.98451700969751">
        <time>2024-01-11T12:52:53Z</time>
      </trkpt>
      <trkpt lat="40.8208480606115" lon="-3.98426825470363">
        <time>2024-01-11T12:52:53Z</time>
      </trkpt>
      <trkpt lat="40.8208562299027" lon="-3.9840717470398">
        <time>2024-01-11T12:52:53Z</time>
      </trkpt>
      <trkpt lat="40.8209053364352" lon="-3.98386029470475">
        <time>2024-01-11T12:52:53Z</time>
      </trkpt>
      <trkpt lat="40.8210015195783" lon="-3.98371197940049">
        <time>2024-01-11T12:52:53Z</time>
      </trkpt>
      <trkpt lat="40.8211201282138" lon="-3.98358834640691">
        <time>2024-01-11T12:52:53Z</time>
      </trkpt>
      <trkpt lat="40.8212446001884" lon="-3.98346194726958">
        <time>2024-01-11T12:52:53Z</time>
      </trkpt>
      <trkpt lat="40.8213886986453" lon="-3.98331873906828">
        <time>2024-01-11T12:52:53Z</time>
      </trkpt>
      <trkpt lat="40.8215395089439" lon="-3.98314998185444">
        <time>2024-01-11T12:52:53Z</time>
      </trkpt>
      <trkpt lat="40.8216639804469" lon="-3.98302358110753">
        <time>2024-01-11T12:52:53Z</time>
      </trkpt>
      <trkpt lat="40.8217691162949" lon="-3.98287979629632">
        <time>2024-01-11T12:52:53Z</time>
      </trkpt>
      <trkpt lat="40.8218545526823" lon="-3.98276136803128">
        <time>2024-01-11T12:52:53Z</time>
      </trkpt>
      <trkpt lat="40.8218824738959" lon="-3.9826133602093">
        <time>2024-01-11T12:52:53Z</time>
      </trkpt>
      <trkpt lat="40.8218701586246" lon="-3.98245382741129">
        <time>2024-01-11T12:52:53Z</time>
      </trkpt>
      <trkpt lat="40.8218074760548" lon="-3.98218787850287">
        <time>2024-01-11T12:52:53Z</time>
      </trkpt>
      <trkpt lat="40.8217320962484" lon="-3.98188754628058">
        <time>2024-01-11T12:52:53Z</time>
      </trkpt>
      <trkpt lat="40.8216240292526" lon="-3.98161238064782">
        <time>2024-01-11T12:52:53Z</time>
      </trkpt>
      <trkpt lat="40.8215482847114" lon="-3.98135479027106">
        <time>2024-01-11T12:52:53Z</time>
      </trkpt>
      <trkpt lat="40.8214661911553" lon="-3.98108000871426">
        <time>2024-01-11T12:52:53Z</time>
      </trkpt>
      <trkpt lat="40.8214095634246" lon="-3.98086544662048">
        <time>2024-01-11T12:52:53Z</time>
      </trkpt>
      <trkpt lat="40.8213077698686" lon="-3.98061602365933">
        <time>2024-01-11T12:52:53Z</time>
      </trkpt>
      <trkpt lat="40.8212311521761" lon="-3.98046101208388">
        <time>2024-01-11T12:52:53Z</time>
      </trkpt>
      <trkpt lat="40.8211217755743" lon="-3.98033971526184">
        <time>2024-01-11T12:52:53Z</time>
      </trkpt>
      <trkpt lat="40.8209736544056" lon="-3.98019220162384">
        <time>2024-01-11T12:52:53Z</time>
      </trkpt>
      <trkpt lat="40.8208705535416" lon="-3.98009664521644">
        <time>2024-01-11T12:52:53Z</time>
      </trkpt>
      <trkpt lat="40.820754029948" lon="-3.98005218596503">
        <time>2024-01-11T12:52:53Z</time>
      </trkpt>
      <trkpt lat="40.8206297670015" lon="-3.98003746303093">
        <time>2024-01-11T12:52:53Z</time>
      </trkpt>
      <trkpt lat="40.8205142713866" lon="-3.97998881628185">
        <time>2024-01-11T12:52:53Z</time>
      </trkpt>
      <trkpt lat="40.8204507852462" lon="-3.9798169023797">
        <time>2024-01-11T12:52:53Z</time>
      </trkpt>
      <trkpt lat="40.8204394658879" lon="-3.97962010877519">
        <time>2024-01-11T12:52:53Z</time>
      </trkpt>
      <trkpt lat="40.820480458186" lon="-3.97938133912284">
        <time>2024-01-11T12:52:53Z</time>
      </trkpt>
      <trkpt lat="40.8205275812732" lon="-3.97918540435771">
        <time>2024-01-11T12:52:53Z</time>
      </trkpt>
      <trkpt lat="40.8205547881442" lon="-3.97904047081759">
        <time>2024-01-11T12:52:53Z</time>
      </trkpt>
      <trkpt lat="40.8206148980332" lon="-3.978844726376">
        <time>2024-01-11T12:52:53Z</time>
      </trkpt>
      <trkpt lat="40.8207005476742" lon="-3.97870065094651">
        <time>2024-01-11T12:52:53Z</time>
      </trkpt>
      <trkpt lat="40.8207864144456" lon="-3.97853093118186">
        <time>2024-01-11T12:52:53Z</time>
      </trkpt>
      <trkpt lat="40.8209047494144" lon="-3.97836168773056">
        <time>2024-01-11T12:52:53Z</time>
      </trkpt>
      <trkpt lat="40.8210224324222" lon="-3.97826937584674">
        <time>2024-01-11T12:52:53Z</time>
      </trkpt>
      <trkpt lat="40.8211468262707" lon="-3.97815151486806">
        <time>2024-01-11T12:52:53Z</time>
      </trkpt>
      <trkpt lat="40.8212386067579" lon="-3.97805027294529">
        <time>2024-01-11T12:52:53Z</time>
      </trkpt>
      <trkpt lat="40.8213562171272" lon="-3.97796650811729">
        <time>2024-01-11T12:52:53Z</time>
      </trkpt>
      <trkpt lat="40.821545981863" lon="-3.97779831049502">
        <time>2024-01-11T12:52:53Z</time>
      </trkpt>
      <trkpt lat="40.8216767241804" lon="-3.97769763921475">
        <time>2024-01-11T12:52:53Z</time>
      </trkpt>
      <trkpt lat="40.8218208156174" lon="-3.97755441748639">
        <time>2024-01-11T12:52:53Z</time>
      </trkpt>
      <trkpt lat="40.8219708940785" lon="-3.97747112740078">
        <time>2024-01-11T12:52:53Z</time>
      </trkpt>
      <trkpt lat="40.8221275385205" lon="-3.97737938404234">
        <time>2024-01-11T12:52:53Z</time>
      </trkpt>
      <trkpt lat="40.8222325227504" lon="-3.97725268554679">
        <time>2024-01-11T12:52:53Z</time>
      </trkpt>
      <trkpt lat="40.8223383747935" lon="-3.97702340836471">
        <time>2024-01-11T12:52:53Z</time>
      </trkpt>
      <trkpt lat="40.8224116856284" lon="-3.97680220263336">
        <time>2024-01-11T12:52:53Z</time>
      </trkpt>
      <trkpt lat="40.8224663101545" lon="-3.97648668056802">
        <time>2024-01-11T12:52:53Z</time>
      </trkpt>
      <trkpt lat="40.822493947323" lon="-3.97629045237856">
        <time>2024-01-11T12:52:53Z</time>
      </trkpt>
      <trkpt lat="40.8225150904681" lon="-3.9760941288847">
        <time>2024-01-11T12:52:53Z</time>
      </trkpt>
      <trkpt lat="40.8225103307562" lon="-3.97588887657997">
        <time>2024-01-11T12:52:53Z</time>
      </trkpt>
      <trkpt lat="40.8224537655941" lon="-3.97566576711974">
        <time>2024-01-11T12:52:53Z</time>
      </trkpt>
      <trkpt lat="40.8223844292327" lon="-3.97541682328639">
        <time>2024-01-11T12:52:53Z</time>
      </trkpt>
      <trkpt lat="40.8222826238618" lon="-3.97516740474206">
        <time>2024-01-11T12:52:53Z</time>
      </trkpt>
      <trkpt lat="40.8221939496662" lon="-3.97490108063634">
        <time>2024-01-11T12:52:53Z</time>
      </trkpt>
      <trkpt lat="40.8221440205654" lon="-3.97466097169527">
        <time>2024-01-11T12:52:53Z</time>
      </trkpt>
      <trkpt lat="40.8221331973925" lon="-3.97440433658692">
        <time>2024-01-11T12:52:53Z</time>
      </trkpt>
      <trkpt lat="40.8221355773715" lon="-3.97412224692259">
        <time>2024-01-11T12:52:53Z</time>
      </trkpt>
      <trkpt lat="40.8220867279533" lon="-3.97375391624622">
        <time>2024-01-11T12:52:53Z</time>
      </trkpt>
      <trkpt lat="40.8220884577574" lon="-3.97354876023358">
        <time>2024-01-11T12:52:53Z</time>
      </trkpt>
      <trkpt lat="40.8220515132197" lon="-3.9733088423572">
        <time>2024-01-11T12:52:53Z</time>
      </trkpt>
      <trkpt lat="40.8220275555747" lon="-3.97306911441465">
        <time>2024-01-11T12:52:53Z</time>
      </trkpt>
      <trkpt lat="40.8219514318012" lon="-3.9728542725708">
        <time>2024-01-11T12:52:53Z</time>
      </trkpt>
      <trkpt lat="40.8218944287088" lon="-3.97268245632522">
        <time>2024-01-11T12:52:53Z</time>
      </trkpt>
      <trkpt lat="40.8218112345883" lon="-3.97253590564006">
        <time>2024-01-11T12:52:53Z</time>
      </trkpt>
      <trkpt lat="40.8217078393363" lon="-3.97247455222178">
        <time>2024-01-11T12:52:53Z</time>
      </trkpt>
      <trkpt lat="40.8215973744664" lon="-3.97248148908228">
        <time>2024-01-11T12:52:53Z</time>
      </trkpt>
      <trkpt lat="40.821474066171" lon="-3.97247114018041">
        <time>2024-01-11T12:52:53Z</time>
      </trkpt>
      <trkpt lat="40.8213577554571" lon="-3.97240104956228">
        <time>2024-01-11T12:52:53Z</time>
      </trkpt>
      <trkpt lat="40.821326510553" lon="-3.9722552584697">
        <time>2024-01-11T12:52:53Z</time>
      </trkpt>
      <trkpt lat="40.8214004415127" lon="-3.97202049209567">
        <time>2024-01-11T12:52:53Z</time>
      </trkpt>
      <trkpt lat="40.8214665479444" lon="-3.97182129571219">
        <time>2024-01-11T12:52:53Z</time>
      </trkpt>
      <trkpt lat="40.8215265503265" lon="-3.97162666819265">
        <time>2024-01-11T12:52:53Z</time>
      </trkpt>
      <trkpt lat="40.8215863116044" lon="-3.97148107627755">
        <time>2024-01-11T12:52:53Z</time>
      </trkpt>
      <trkpt lat="40.8216912894559" lon="-3.97135436936805">
        <time>2024-01-11T12:52:53Z</time>
      </trkpt>
      <trkpt lat="40.8218494340132" lon="-3.97121389717138">
        <time>2024-01-11T12:52:53Z</time>
      </trkpt>
      <trkpt lat="40.8220051332309" lon="-3.97115270298659">
        <time>2024-01-11T12:52:53Z</time>
      </trkpt>
      <trkpt lat="40.8221348742149" lon="-3.97112145799412">
        <time>2024-01-11T12:52:53Z</time>
      </trkpt>
      <trkpt lat="40.8223055074448" lon="-3.97091021383447">
        <time>2024-01-11T12:52:53Z</time>
      </trkpt>
      <trkpt lat="40.8224174095497" lon="-3.97073230998216">
        <time>2024-01-11T12:52:53Z</time>
      </trkpt>
      <trkpt lat="40.8225355895443" lon="-3.97058014482275">
        <time>2024-01-11T12:52:53Z</time>
      </trkpt>
      <trkpt lat="40.8226472756399" lon="-3.97042788454028">
        <time>2024-01-11T12:52:53Z</time>
      </trkpt>
      <trkpt lat="40.8228178357996" lon="-3.97022518524794">
        <time>2024-01-11T12:52:53Z</time>
      </trkpt>
      <trkpt lat="40.8229558552912" lon="-3.97003056048368">
        <time>2024-01-11T12:52:53Z</time>
      </trkpt>
      <trkpt lat="40.8230738907808" lon="-3.96989548945538">
        <time>2024-01-11T12:52:53Z</time>
      </trkpt>
      <trkpt lat="40.8232118379412" lon="-3.96970941158019">
        <time>2024-01-11T12:52:53Z</time>
      </trkpt>
      <trkpt lat="40.8232847042373" lon="-3.96953948462613">
        <time>2024-01-11T12:52:53Z</time>
      </trkpt>
      <trkpt lat="40.8233770513948" lon="-3.96936984074352">
        <time>2024-01-11T12:52:53Z</time>
      </trkpt>
      <trkpt lat="40.823436929791" lon="-3.96919972405806">
        <time>2024-01-11T12:52:53Z</time>
      </trkpt>
      <trkpt lat="40.8234577739839" lon="-3.96903758872102">
        <time>2024-01-11T12:52:53Z</time>
      </trkpt>
      <trkpt lat="40.8234660608706" lon="-3.96882397427174">
        <time>2024-01-11T12:52:53Z</time>
      </trkpt>
      <trkpt lat="40.8234480857263" lon="-3.9686441755459">
        <time>2024-01-11T12:52:53Z</time>
      </trkpt>
      <trkpt lat="40.8234107725713" lon="-3.96844699702903">
        <time>2024-01-11T12:52:53Z</time>
      </trkpt>
      <trkpt lat="40.8233669653716" lon="-3.96824972435394">
        <time>2024-01-11T12:52:53Z</time>
      </trkpt>
      <trkpt lat="40.8233686854308" lon="-3.96804456406288">
        <time>2024-01-11T12:52:53Z</time>
      </trkpt>
      <trkpt lat="40.8234023721133" lon="-3.967899713874">
        <time>2024-01-11T12:52:53Z</time>
      </trkpt>
      <trkpt lat="40.8234098688688" lon="-3.96778013129107">
        <time>2024-01-11T12:52:53Z</time>
      </trkpt>
      <trkpt lat="40.823352356807" lon="-3.96766815386764">
        <time>2024-01-11T12:52:53Z</time>
      </trkpt>
      <trkpt lat="40.8232752918893" lon="-3.96756444205624">
        <time>2024-01-11T12:52:53Z</time>
      </trkpt>
      <trkpt lat="40.8232114291393" lon="-3.96743527409457">
        <time>2024-01-11T12:52:53Z</time>
      </trkpt>
      <trkpt lat="40.823226764913" lon="-3.96723757133321">
        <time>2024-01-11T12:52:53Z</time>
      </trkpt>
      <trkpt lat="40.8232415616274" lon="-3.96709002784707">
        <time>2024-01-11T12:52:53Z</time>
      </trkpt>
      <trkpt lat="40.8232442067601" lon="-3.96695420780956">
        <time>2024-01-11T12:52:53Z</time>
      </trkpt>
      <trkpt lat="40.823262612362" lon="-3.9667520674075">
        <time>2024-01-11T12:52:53Z</time>
      </trkpt>
      <trkpt lat="40.8233036497487" lon="-3.96650473088124">
        <time>2024-01-11T12:52:53Z</time>
      </trkpt>
      <trkpt lat="40.8233442574222" lon="-3.96630868412322">
        <time>2024-01-11T12:52:53Z</time>
      </trkpt>
      <trkpt lat="40.8233717343088" lon="-3.96612954549289">
        <time>2024-01-11T12:52:53Z</time>
      </trkpt>
      <trkpt lat="40.8234254717765" lon="-3.96591658987172">
        <time>2024-01-11T12:52:53Z</time>
      </trkpt>
      <trkpt lat="40.8234660069675" lon="-3.96572909074243">
        <time>2024-01-11T12:52:53Z</time>
      </trkpt>
      <trkpt lat="40.8235127496556" lon="-3.96557587897122">
        <time>2024-01-11T12:52:53Z</time>
      </trkpt>
      <trkpt lat="40.8235534272259" lon="-3.96537128262646">
        <time>2024-01-11T12:52:53Z</time>
      </trkpt>
      <trkpt lat="40.8235482912118" lon="-3.96520876939447">
        <time>2024-01-11T12:52:53Z</time>
      </trkpt>
      <trkpt lat="40.8235105435343" lon="-3.96506288262056">
        <time>2024-01-11T12:52:53Z</time>
      </trkpt>
      <trkpt lat="40.823473152812" lon="-3.96487425417315">
        <time>2024-01-11T12:52:53Z</time>
      </trkpt>
      <trkpt lat="40.8234616652119" lon="-3.96469455040126">
        <time>2024-01-11T12:52:53Z</time>
      </trkpt>
      <trkpt lat="40.8234629505514" lon="-3.96454067980462">
        <time>2024-01-11T12:52:53Z</time>
      </trkpt>
      <trkpt lat="40.8234643784658" lon="-3.96436971246338">
        <time>2024-01-11T12:52:53Z</time>
      </trkpt>
      <trkpt lat="40.8234785080397" lon="-3.96423312654492">
        <time>2024-01-11T12:52:53Z</time>
      </trkpt>
      <trkpt lat="40.8234778112651" lon="-3.96406489610644">
        <time>2024-01-11T12:52:53Z</time>
      </trkpt>
      <trkpt lat="40.8234877850632" lon="-3.96389983405933">
        <time>2024-01-11T12:52:53Z</time>
      </trkpt>
      <trkpt lat="40.8234697308888" lon="-3.96372858482453">
        <time>2024-01-11T12:52:53Z</time>
      </trkpt>
      <trkpt lat="40.8234713715849" lon="-3.9635319723141">
        <time>2024-01-11T12:52:53Z</time>
      </trkpt>
      <trkpt lat="40.8234728693191" lon="-3.96335245652955">
        <time>2024-01-11T12:52:53Z</time>
      </trkpt>
      <trkpt lat="40.8234805752804" lon="-3.96320722809954">
        <time>2024-01-11T12:52:53Z</time>
      </trkpt>
      <trkpt lat="40.8234820012193" lon="-3.96303626064606">
        <time>2024-01-11T12:52:53Z</time>
      </trkpt>
      <trkpt lat="40.823508974085" lon="-3.96291695883495">
        <time>2024-01-11T12:52:53Z</time>
      </trkpt>
      <trkpt lat="40.8235228881249" lon="-3.96280601762003">
        <time>2024-01-11T12:52:53Z</time>
      </trkpt>
      <trkpt lat="40.8234979110327" lon="-3.96268596498988">
        <time>2024-01-11T12:52:53Z</time>
      </trkpt>
      <trkpt lat="40.8234883776719" lon="-3.96268258339043">
        <time>2024-01-11T12:52:53Z</time>
      </trkpt>
      <trkpt lat="40.8234879469865" lon="-3.96267760393442">
        <time>2024-01-11T12:52:53Z</time>
      </trkpt>
      <trkpt lat="40.8234880403499" lon="-3.96266641552147">
        <time>2024-01-11T12:52:53Z</time>
      </trkpt>
      <trkpt lat="40.8234934756134" lon="-3.96266587246417">
        <time>2024-01-11T12:52:53Z</time>
      </trkpt>
      <trkpt lat="40.823497468401" lon="-3.96266841681594">
        <time>2024-01-11T12:52:53Z</time>
      </trkpt>
      <trkpt lat="40.823500701049" lon="-3.96267716671222">
        <time>2024-01-11T12:52:53Z</time>
      </trkpt>
      <trkpt lat="40.8234979110327" lon="-3.96268596498988">
        <time>2024-01-11T12:52:53Z</time>
      </trkpt>
      <trkpt lat="40.8235228881249" lon="-3.96280601762003">
        <time>2024-01-11T12:52:53Z</time>
      </trkpt>
      <trkpt lat="40.823508974085" lon="-3.96291695883495">
        <time>2024-01-11T12:52:53Z</time>
      </trkpt>
      <trkpt lat="40.8234820012193" lon="-3.96303626064606">
        <time>2024-01-11T12:52:53Z</time>
      </trkpt>
      <trkpt lat="40.8234805752804" lon="-3.96320722809954">
        <time>2024-01-11T12:52:53Z</time>
      </trkpt>
      <trkpt lat="40.8234728693191" lon="-3.96335245652955">
        <time>2024-01-11T12:52:53Z</time>
      </trkpt>
      <trkpt lat="40.8234713715849" lon="-3.9635319723141">
        <time>2024-01-11T12:52:53Z</time>
      </trkpt>
      <trkpt lat="40.8234697308888" lon="-3.96372858482453">
        <time>2024-01-11T12:52:53Z</time>
      </trkpt>
      <trkpt lat="40.8234877850632" lon="-3.96389983405933">
        <time>2024-01-11T12:52:53Z</time>
      </trkpt>
      <trkpt lat="40.8234778112651" lon="-3.96406489610644">
        <time>2024-01-11T12:52:53Z</time>
      </trkpt>
      <trkpt lat="40.8234785080397" lon="-3.96423312654492">
        <time>2024-01-11T12:52:53Z</time>
      </trkpt>
      <trkpt lat="40.8234643784658" lon="-3.96436971246338">
        <time>2024-01-11T12:52:53Z</time>
      </trkpt>
      <trkpt lat="40.8234629505514" lon="-3.96454067980462">
        <time>2024-01-11T12:52:53Z</time>
      </trkpt>
      <trkpt lat="40.8234616652119" lon="-3.96469455040126">
        <time>2024-01-11T12:52:53Z</time>
      </trkpt>
      <trkpt lat="40.823473152812" lon="-3.96487425417315">
        <time>2024-01-11T12:52:53Z</time>
      </trkpt>
      <trkpt lat="40.8235105435343" lon="-3.96506288262056">
        <time>2024-01-11T12:52:53Z</time>
      </trkpt>
      <trkpt lat="40.8235482912118" lon="-3.96520876939447">
        <time>2024-01-11T12:52:53Z</time>
      </trkpt>
      <trkpt lat="40.8235534272259" lon="-3.96537128262646">
        <time>2024-01-11T12:52:53Z</time>
      </trkpt>
      <trkpt lat="40.8235127496556" lon="-3.96557587897122">
        <time>2024-01-11T12:52:53Z</time>
      </trkpt>
      <trkpt lat="40.8234660069675" lon="-3.96572909074243">
        <time>2024-01-11T12:52:53Z</time>
      </trkpt>
      <trkpt lat="40.8234254717765" lon="-3.96591658987172">
        <time>2024-01-11T12:52:53Z</time>
      </trkpt>
      <trkpt lat="40.8233717343088" lon="-3.96612954549289">
        <time>2024-01-11T12:52:53Z</time>
      </trkpt>
      <trkpt lat="40.8233442574222" lon="-3.96630868412322">
        <time>2024-01-11T12:52:53Z</time>
      </trkpt>
      <trkpt lat="40.8233036497487" lon="-3.96650473088124">
        <time>2024-01-11T12:52:53Z</time>
      </trkpt>
      <trkpt lat="40.823262612362" lon="-3.9667520674075">
        <time>2024-01-11T12:52:53Z</time>
      </trkpt>
      <trkpt lat="40.8232442067601" lon="-3.96695420780956">
        <time>2024-01-11T12:52:53Z</time>
      </trkpt>
      <trkpt lat="40.8232415616274" lon="-3.96709002784707">
        <time>2024-01-11T12:52:53Z</time>
      </trkpt>
      <trkpt lat="40.823226764913" lon="-3.96723757133321">
        <time>2024-01-11T12:52:53Z</time>
      </trkpt>
      <trkpt lat="40.8232114291393" lon="-3.96743527409457">
        <time>2024-01-11T12:52:53Z</time>
      </trkpt>
      <trkpt lat="40.8232752918893" lon="-3.96756444205624">
        <time>2024-01-11T12:52:53Z</time>
      </trkpt>
      <trkpt lat="40.823352356807" lon="-3.96766815386764">
        <time>2024-01-11T12:52:53Z</time>
      </trkpt>
      <trkpt lat="40.8234098688688" lon="-3.96778013129107">
        <time>2024-01-11T12:52:53Z</time>
      </trkpt>
      <trkpt lat="40.8234023721133" lon="-3.967899713874">
        <time>2024-01-11T12:52:53Z</time>
      </trkpt>
      <trkpt lat="40.8233686854308" lon="-3.96804456406288">
        <time>2024-01-11T12:52:53Z</time>
      </trkpt>
      <trkpt lat="40.8233669653716" lon="-3.96824972435394">
        <time>2024-01-11T12:52:53Z</time>
      </trkpt>
      <trkpt lat="40.8234107725713" lon="-3.96844699702903">
        <time>2024-01-11T12:52:53Z</time>
      </trkpt>
      <trkpt lat="40.8234480857263" lon="-3.9686441755459">
        <time>2024-01-11T12:52:53Z</time>
      </trkpt>
      <trkpt lat="40.8234660608706" lon="-3.96882397427174">
        <time>2024-01-11T12:52:53Z</time>
      </trkpt>
      <trkpt lat="40.8234577739839" lon="-3.96903758872102">
        <time>2024-01-11T12:52:53Z</time>
      </trkpt>
      <trkpt lat="40.823436929791" lon="-3.96919972405806">
        <time>2024-01-11T12:52:53Z</time>
      </trkpt>
      <trkpt lat="40.8233770513948" lon="-3.96936984074352">
        <time>2024-01-11T12:52:53Z</time>
      </trkpt>
      <trkpt lat="40.8232847042373" lon="-3.96953948462613">
        <time>2024-01-11T12:52:53Z</time>
      </trkpt>
      <trkpt lat="40.8232118379412" lon="-3.96970941158019">
        <time>2024-01-11T12:52:53Z</time>
      </trkpt>
      <trkpt lat="40.8230738907808" lon="-3.96989548945538">
        <time>2024-01-11T12:52:53Z</time>
      </trkpt>
      <trkpt lat="40.8229558552912" lon="-3.97003056048368">
        <time>2024-01-11T12:52:53Z</time>
      </trkpt>
      <trkpt lat="40.8228178357996" lon="-3.97022518524794">
        <time>2024-01-11T12:52:53Z</time>
      </trkpt>
      <trkpt lat="40.8226472756399" lon="-3.97042788454028">
        <time>2024-01-11T12:52:53Z</time>
      </trkpt>
      <trkpt lat="40.8225355895443" lon="-3.97058014482275">
        <time>2024-01-11T12:52:53Z</time>
      </trkpt>
      <trkpt lat="40.8224174095497" lon="-3.97073230998216">
        <time>2024-01-11T12:52:53Z</time>
      </trkpt>
      <trkpt lat="40.8223055074448" lon="-3.97091021383447">
        <time>2024-01-11T12:52:53Z</time>
      </trkpt>
      <trkpt lat="40.8221348742149" lon="-3.97112145799412">
        <time>2024-01-11T12:52:53Z</time>
      </trkpt>
      <trkpt lat="40.8220051332309" lon="-3.97115270298659">
        <time>2024-01-11T12:52:53Z</time>
      </trkpt>
      <trkpt lat="40.8218494340132" lon="-3.97121389717138">
        <time>2024-01-11T12:52:53Z</time>
      </trkpt>
      <trkpt lat="40.8216912894559" lon="-3.97135436936805">
        <time>2024-01-11T12:52:53Z</time>
      </trkpt>
      <trkpt lat="40.8215863116044" lon="-3.97148107627755">
        <time>2024-01-11T12:52:53Z</time>
      </trkpt>
      <trkpt lat="40.8215265503265" lon="-3.97162666819265">
        <time>2024-01-11T12:52:53Z</time>
      </trkpt>
      <trkpt lat="40.8214665479444" lon="-3.97182129571219">
        <time>2024-01-11T12:52:53Z</time>
      </trkpt>
      <trkpt lat="40.8214004415127" lon="-3.97202049209567">
        <time>2024-01-11T12:52:53Z</time>
      </trkpt>
      <trkpt lat="40.821326510553" lon="-3.9722552584697">
        <time>2024-01-11T12:52:53Z</time>
      </trkpt>
      <trkpt lat="40.8213577554571" lon="-3.97240104956228">
        <time>2024-01-11T12:52:53Z</time>
      </trkpt>
      <trkpt lat="40.821474066171" lon="-3.97247114018041">
        <time>2024-01-11T12:52:53Z</time>
      </trkpt>
      <trkpt lat="40.8215973744664" lon="-3.97248148908228">
        <time>2024-01-11T12:52:53Z</time>
      </trkpt>
      <trkpt lat="40.8217078393363" lon="-3.97247455222178">
        <time>2024-01-11T12:52:53Z</time>
      </trkpt>
      <trkpt lat="40.8218112345883" lon="-3.97253590564006">
        <time>2024-01-11T12:52:53Z</time>
      </trkpt>
      <trkpt lat="40.8218944287088" lon="-3.97268245632522">
        <time>2024-01-11T12:52:53Z</time>
      </trkpt>
      <trkpt lat="40.8219514318012" lon="-3.9728542725708">
        <time>2024-01-11T12:52:53Z</time>
      </trkpt>
      <trkpt lat="40.8220275555747" lon="-3.97306911441465">
        <time>2024-01-11T12:52:53Z</time>
      </trkpt>
      <trkpt lat="40.8220515132197" lon="-3.9733088423572">
        <time>2024-01-11T12:52:53Z</time>
      </trkpt>
      <trkpt lat="40.8220884577574" lon="-3.97354876023358">
        <time>2024-01-11T12:52:53Z</time>
      </trkpt>
      <trkpt lat="40.8220867279533" lon="-3.97375391624622">
        <time>2024-01-11T12:52:53Z</time>
      </trkpt>
      <trkpt lat="40.8221355773715" lon="-3.97412224692259">
        <time>2024-01-11T12:52:53Z</time>
      </trkpt>
      <trkpt lat="40.8221331973925" lon="-3.97440433658692">
        <time>2024-01-11T12:52:53Z</time>
      </trkpt>
      <trkpt lat="40.8221440205654" lon="-3.97466097169527">
        <time>2024-01-11T12:52:53Z</time>
      </trkpt>
      <trkpt lat="40.8221939496662" lon="-3.97490108063634">
        <time>2024-01-11T12:52:53Z</time>
      </trkpt>
      <trkpt lat="40.8222826238618" lon="-3.97516740474206">
        <time>2024-01-11T12:52:53Z</time>
      </trkpt>
      <trkpt lat="40.8223844292327" lon="-3.97541682328639">
        <time>2024-01-11T12:52:53Z</time>
      </trkpt>
      <trkpt lat="40.8224537655941" lon="-3.97566576711974">
        <time>2024-01-11T12:52:53Z</time>
      </trkpt>
      <trkpt lat="40.8225103307562" lon="-3.97588887657997">
        <time>2024-01-11T12:52:53Z</time>
      </trkpt>
      <trkpt lat="40.8225150904681" lon="-3.9760941288847">
        <time>2024-01-11T12:52:53Z</time>
      </trkpt>
      <trkpt lat="40.822493947323" lon="-3.97629045237856">
        <time>2024-01-11T12:52:53Z</time>
      </trkpt>
      <trkpt lat="40.8224663101545" lon="-3.97648668056802">
        <time>2024-01-11T12:52:53Z</time>
      </trkpt>
      <trkpt lat="40.8224116856284" lon="-3.97680220263336">
        <time>2024-01-11T12:52:53Z</time>
      </trkpt>
      <trkpt lat="40.8223383747935" lon="-3.97702340836471">
        <time>2024-01-11T12:52:53Z</time>
      </trkpt>
      <trkpt lat="40.8222325227504" lon="-3.97725268554679">
        <time>2024-01-11T12:52:53Z</time>
      </trkpt>
      <trkpt lat="40.8221275385205" lon="-3.97737938404234">
        <time>2024-01-11T12:52:53Z</time>
      </trkpt>
      <trkpt lat="40.8219708940785" lon="-3.97747112740078">
        <time>2024-01-11T12:52:53Z</time>
      </trkpt>
      <trkpt lat="40.8218208156174" lon="-3.97755441748639">
        <time>2024-01-11T12:52:53Z</time>
      </trkpt>
      <trkpt lat="40.8216767241804" lon="-3.97769763921475">
        <time>2024-01-11T12:52:53Z</time>
      </trkpt>
      <trkpt lat="40.821545981863" lon="-3.97779831049502">
        <time>2024-01-11T12:52:53Z</time>
      </trkpt>
      <trkpt lat="40.8213562171272" lon="-3.97796650811729">
        <time>2024-01-11T12:52:53Z</time>
      </trkpt>
      <trkpt lat="40.8212386067579" lon="-3.97805027294529">
        <time>2024-01-11T12:52:53Z</time>
      </trkpt>
      <trkpt lat="40.8211468262707" lon="-3.97815151486806">
        <time>2024-01-11T12:52:53Z</time>
      </trkpt>
      <trkpt lat="40.8210224324222" lon="-3.97826937584674">
        <time>2024-01-11T12:52:53Z</time>
      </trkpt>
      <trkpt lat="40.8209047494144" lon="-3.97836168773056">
        <time>2024-01-11T12:52:53Z</time>
      </trkpt>
      <trkpt lat="40.8207864144456" lon="-3.97853093118186">
        <time>2024-01-11T12:52:53Z</time>
      </trkpt>
      <trkpt lat="40.8207005476742" lon="-3.97870065094651">
        <time>2024-01-11T12:52:53Z</time>
      </trkpt>
      <trkpt lat="40.8206148980332" lon="-3.978844726376">
        <time>2024-01-11T12:52:53Z</time>
      </trkpt>
      <trkpt lat="40.8205547881442" lon="-3.97904047081759">
        <time>2024-01-11T12:52:53Z</time>
      </trkpt>
      <trkpt lat="40.8205275812732" lon="-3.97918540435771">
        <time>2024-01-11T12:52:53Z</time>
      </trkpt>
      <trkpt lat="40.820480458186" lon="-3.97938133912284">
        <time>2024-01-11T12:52:53Z</time>
      </trkpt>
      <trkpt lat="40.8204394658879" lon="-3.97962010877519">
        <time>2024-01-11T12:52:53Z</time>
      </trkpt>
      <trkpt lat="40.8204507852462" lon="-3.9798169023797">
        <time>2024-01-11T12:52:53Z</time>
      </trkpt>
      <trkpt lat="40.8205142713866" lon="-3.97998881628185">
        <time>2024-01-11T12:52:53Z</time>
      </trkpt>
      <trkpt lat="40.8206297670015" lon="-3.98003746303093">
        <time>2024-01-11T12:52:53Z</time>
      </trkpt>
      <trkpt lat="40.820754029948" lon="-3.98005218596503">
        <time>2024-01-11T12:52:53Z</time>
      </trkpt>
      <trkpt lat="40.8208705535416" lon="-3.98009664521644">
        <time>2024-01-11T12:52:53Z</time>
      </trkpt>
      <trkpt lat="40.8209736544056" lon="-3.98019220162384">
        <time>2024-01-11T12:52:53Z</time>
      </trkpt>
      <trkpt lat="40.8211217755743" lon="-3.98033971526184">
        <time>2024-01-11T12:52:53Z</time>
      </trkpt>
      <trkpt lat="40.8212311521761" lon="-3.98046101208388">
        <time>2024-01-11T12:52:53Z</time>
      </trkpt>
      <trkpt lat="40.8213077698686" lon="-3.98061602365933">
        <time>2024-01-11T12:52:53Z</time>
      </trkpt>
      <trkpt lat="40.8214095634246" lon="-3.98086544662048">
        <time>2024-01-11T12:52:53Z</time>
      </trkpt>
      <trkpt lat="40.8214661911553" lon="-3.98108000871426">
        <time>2024-01-11T12:52:53Z</time>
      </trkpt>
      <trkpt lat="40.8215482847114" lon="-3.98135479027106">
        <time>2024-01-11T12:52:53Z</time>
      </trkpt>
      <trkpt lat="40.8216240292526" lon="-3.98161238064782">
        <time>2024-01-11T12:52:53Z</time>
      </trkpt>
      <trkpt lat="40.8217320962484" lon="-3.98188754628058">
        <time>2024-01-11T12:52:53Z</time>
      </trkpt>
      <trkpt lat="40.8218074760548" lon="-3.98218787850287">
        <time>2024-01-11T12:52:53Z</time>
      </trkpt>
      <trkpt lat="40.8218701586246" lon="-3.98245382741129">
        <time>2024-01-11T12:52:53Z</time>
      </trkpt>
      <trkpt lat="40.8218824738959" lon="-3.9826133602093">
        <time>2024-01-11T12:52:53Z</time>
      </trkpt>
      <trkpt lat="40.8218545526823" lon="-3.98276136803128">
        <time>2024-01-11T12:52:53Z</time>
      </trkpt>
      <trkpt lat="40.8217691162949" lon="-3.98287979629632">
        <time>2024-01-11T12:52:53Z</time>
      </trkpt>
      <trkpt lat="40.8216639804469" lon="-3.98302358110753">
        <time>2024-01-11T12:52:53Z</time>
      </trkpt>
      <trkpt lat="40.8215395089439" lon="-3.98314998185444">
        <time>2024-01-11T12:52:53Z</time>
      </trkpt>
      <trkpt lat="40.8213886986453" lon="-3.98331873906828">
        <time>2024-01-11T12:52:53Z</time>
      </trkpt>
      <trkpt lat="40.8212446001884" lon="-3.98346194726958">
        <time>2024-01-11T12:52:53Z</time>
      </trkpt>
      <trkpt lat="40.8211201282138" lon="-3.98358834640691">
        <time>2024-01-11T12:52:53Z</time>
      </trkpt>
      <trkpt lat="40.8210015195783" lon="-3.98371197940049">
        <time>2024-01-11T12:52:53Z</time>
      </trkpt>
      <trkpt lat="40.8209053364352" lon="-3.98386029470475">
        <time>2024-01-11T12:52:53Z</time>
      </trkpt>
      <trkpt lat="40.8208562299027" lon="-3.9840717470398">
        <time>2024-01-11T12:52:53Z</time>
      </trkpt>
      <trkpt lat="40.8208480606115" lon="-3.98426825470363">
        <time>2024-01-11T12:52:53Z</time>
      </trkpt>
      <trkpt lat="40.8209043904974" lon="-3.98451700969751">
        <time>2024-01-11T12:52:53Z</time>
      </trkpt>
      <trkpt lat="40.8209678695663" lon="-3.98468892912165">
        <time>2024-01-11T12:52:53Z</time>
      </trkpt>
      <trkpt lat="40.8210828603466" lon="-3.98491290480808">
        <time>2024-01-11T12:52:53Z</time>
      </trkpt>
      <trkpt lat="40.8211852279466" lon="-3.98509394912814">
        <time>2024-01-11T12:52:53Z</time>
      </trkpt>
      <trkpt lat="40.8212681142291" lon="-3.98527470592378">
        <time>2024-01-11T12:52:53Z</time>
      </trkpt>
      <trkpt lat="40.8213384505535" lon="-3.98540398283222">
        <time>2024-01-11T12:52:53Z</time>
      </trkpt>
      <trkpt lat="40.8213826661208" lon="-3.98554997189803">
        <time>2024-01-11T12:52:53Z</time>
      </trkpt>
      <trkpt lat="40.8214006879017" lon="-3.98572122102861">
        <time>2024-01-11T12:52:53Z</time>
      </trkpt>
      <trkpt lat="40.8213995203253" lon="-3.98585798979585">
        <time>2024-01-11T12:52:53Z</time>
      </trkpt>
      <trkpt lat="40.8213720129411" lon="-3.98603711438707">
        <time>2024-01-11T12:52:53Z</time>
      </trkpt>
      <trkpt lat="40.8213116718812" lon="-3.9862584984117">
        <time>2024-01-11T12:52:53Z</time>
      </trkpt>
      <trkpt lat="40.8212257208227" lon="-3.98643675733443">
        <time>2024-01-11T12:52:53Z</time>
      </trkpt>
      <trkpt lat="40.821126782147" lon="-3.98661482348092">
        <time>2024-01-11T12:52:53Z</time>
      </trkpt>
      <trkpt lat="40.8210144906113" lon="-3.98683543672825">
        <time>2024-01-11T12:52:53Z</time>
      </trkpt>
      <trkpt lat="40.8209090576572" lon="-3.98701340551698">
        <time>2024-01-11T12:52:53Z</time>
      </trkpt>
      <trkpt lat="40.8208239898947" lon="-3.98720981290814">
        <time>2024-01-11T12:52:53Z</time>
      </trkpt>
      <trkpt lat="40.8207694751468" lon="-3.987387495838">
        <time>2024-01-11T12:52:53Z</time>
      </trkpt>
      <trkpt lat="40.820748239766" lon="-3.98759235818727">
        <time>2024-01-11T12:52:53Z</time>
      </trkpt>
      <trkpt lat="40.8207396988742" lon="-3.98783160477136">
        <time>2024-01-11T12:52:53Z</time>
      </trkpt>
      <trkpt lat="40.8207379437187" lon="-3.98803675575273">
        <time>2024-01-11T12:52:53Z</time>
      </trkpt>
      <trkpt lat="40.8207620165688" lon="-3.98825938789039">
        <time>2024-01-11T12:52:53Z</time>
      </trkpt>
      <trkpt lat="40.8207863085008" lon="-3.98845637629385">
        <time>2024-01-11T12:52:53Z</time>
      </trkpt>
      <trkpt lat="40.8208297883576" lon="-3.9886878457662">
        <time>2024-01-11T12:52:53Z</time>
      </trkpt>
      <trkpt lat="40.8208863282879" lon="-3.98891096031862">
        <time>2024-01-11T12:52:53Z</time>
      </trkpt>
      <trkpt lat="40.820942794561" lon="-3.98914262322294">
        <time>2024-01-11T12:52:53Z</time>
      </trkpt>
      <trkpt lat="40.8209996997837" lon="-3.98932299858764">
        <time>2024-01-11T12:52:53Z</time>
      </trkpt>
      <trkpt lat="40.8210498913058" lon="-3.9895289217985">
        <time>2024-01-11T12:52:53Z</time>
      </trkpt>
      <trkpt lat="40.8211198565135" lon="-3.9897009426874">
        <time>2024-01-11T12:52:53Z</time>
      </trkpt>
      <trkpt lat="40.8211831812407" lon="-3.98988996347909">
        <time>2024-01-11T12:52:53Z</time>
      </trkpt>
      <trkpt lat="40.8212140373235" lon="-3.99007850215308">
        <time>2024-01-11T12:52:53Z</time>
      </trkpt>
      <trkpt lat="40.8212386926454" lon="-3.99023275242018">
        <time>2024-01-11T12:52:53Z</time>
      </trkpt>
      <trkpt lat="40.8212764084041" lon="-3.99037864782664">
        <time>2024-01-11T12:52:53Z</time>
      </trkpt>
      <trkpt lat="40.8213272579535" lon="-3.99050764041875">
        <time>2024-01-11T12:52:53Z</time>
      </trkpt>
      <trkpt lat="40.8213912413495" lon="-3.99061973023586">
        <time>2024-01-11T12:52:53Z</time>
      </trkpt>
      <trkpt lat="40.8214552246334" lon="-3.99073182026744">
        <time>2024-01-11T12:52:53Z</time>
      </trkpt>
      <trkpt lat="40.8214735321089" lon="-3.99086887865699">
        <time>2024-01-11T12:52:53Z</time>
      </trkpt>
      <trkpt lat="40.8214334698046" lon="-3.99099651980949">
        <time>2024-01-11T12:52:53Z</time>
      </trkpt>
      <trkpt lat="40.8214058810913" lon="-3.99118419024434">
        <time>2024-01-11T12:52:53Z</time>
      </trkpt>
      <trkpt lat="40.8213650845835" lon="-3.99139731136293">
        <time>2024-01-11T12:52:53Z</time>
      </trkpt>
      <trkpt lat="40.8213307813475" lon="-3.99161052885712">
        <time>2024-01-11T12:52:53Z</time>
      </trkpt>
      <trkpt lat="40.8213290928722" lon="-3.99180713340203">
        <time>2024-01-11T12:52:53Z</time>
      </trkpt>
      <trkpt lat="40.8213538193026" lon="-3.99195283650426">
        <time>2024-01-11T12:52:53Z</time>
      </trkpt>
      <trkpt lat="40.8213788393061" lon="-3.99206434759527">
        <time>2024-01-11T12:52:53Z</time>
      </trkpt>
      <trkpt lat="40.8213843047686" lon="-3.99218411669912">
        <time>2024-01-11T12:52:53Z</time>
      </trkpt>
      <trkpt lat="40.8213763420353" lon="-3.99235498056473">
        <time>2024-01-11T12:52:53Z</time>
      </trkpt>
      <trkpt lat="40.8213614445416" lon="-3.99257703580441">
        <time>2024-01-11T12:52:53Z</time>
      </trkpt>
      <trkpt lat="40.821359827909" lon="-3.99276509235758">
        <time>2024-01-11T12:52:53Z</time>
      </trkpt>
      <trkpt lat="40.8213585784829" lon="-3.99291040877457">
        <time>2024-01-11T12:52:53Z</time>
      </trkpt>
      <trkpt lat="40.8213574023854" lon="-3.99304717715869">
        <time>2024-01-11T12:52:53Z</time>
      </trkpt>
      <trkpt lat="40.8213238313471" lon="-3.99317491352772">
        <time>2024-01-11T12:52:53Z</time>
      </trkpt>
      <trkpt lat="40.8212372078712" lon="-3.99343009540796">
        <time>2024-01-11T12:52:53Z</time>
      </trkpt>
      <trkpt lat="40.8211576659412" lon="-3.99361698948891">
        <time>2024-01-11T12:52:53Z</time>
      </trkpt>
      <trkpt lat="40.8211000058012" lon="-3.99366795972321">
        <time>2024-01-11T12:52:53Z</time>
      </trkpt>
      <trkpt lat="40.8210222871663" lon="-3.99368266591292">
        <time>2024-01-11T12:52:53Z</time>
      </trkpt>
      <trkpt lat="40.820842830446" lon="-3.9936145398874">
        <time>2024-01-11T12:52:53Z</time>
      </trkpt>
      <trkpt lat="40.8207295992609" lon="-3.99355076257741">
        <time>2024-01-11T12:52:53Z</time>
      </trkpt>
      <trkpt lat="40.8206029688344" lon="-3.99347510730054">
        <time>2024-01-11T12:52:53Z</time>
      </trkpt>
      <trkpt lat="40.8204576375354" lon="-3.99338071758689">
        <time>2024-01-11T12:52:53Z</time>
      </trkpt>
      <trkpt lat="40.8203613726337" lon="-3.99332299798042">
        <time>2024-01-11T12:52:53Z</time>
      </trkpt>
      <trkpt lat="40.8202639677216" lon="-3.99332154586649">
        <time>2024-01-11T12:52:53Z</time>
      </trkpt>
      <trkpt lat="40.8200884182843" lon="-3.99334457565978">
        <time>2024-01-11T12:52:53Z</time>
      </trkpt>
      <trkpt lat="40.8198217462272" lon="-3.9933910623677">
        <time>2024-01-11T12:52:53Z</time>
      </trkpt>
      <trkpt lat="40.8196332269221" lon="-3.99341303996954">
        <time>2024-01-11T12:52:53Z</time>
      </trkpt>
      <trkpt lat="40.8194402138807" lon="-3.99343197557923">
        <time>2024-01-11T12:52:53Z</time>
      </trkpt>
      <trkpt lat="40.8192464134558" lon="-3.99345486576969">
        <time>2024-01-11T12:52:53Z</time>
      </trkpt>
      <trkpt lat="40.8190813208966" lon="-3.99346826814434">
        <time>2024-01-11T12:52:53Z</time>
      </trkpt>
      <trkpt lat="40.8189494470111" lon="-3.99347324169441">
        <time>2024-01-11T12:52:53Z</time>
      </trkpt>
      <trkpt lat="40.818843824951" lon="-3.99349149774249">
        <time>2024-01-11T12:52:53Z</time>
      </trkpt>
      <trkpt lat="40.8188225639254" lon="-3.99351101251644">
        <time>2024-01-11T12:52:53Z</time>
      </trkpt>
      <trkpt lat="40.8188187450246" lon="-3.99364133443226">
        <time>2024-01-11T12:52:53Z</time>
      </trkpt>
      <trkpt lat="40.8188174051559" lon="-3.99368461270645">
        <time>2024-01-11T12:52:53Z</time>
      </trkpt>
      <trkpt lat="40.8188151849169" lon="-3.99375632611791">
        <time>2024-01-11T12:52:53Z</time>
      </trkpt>
      <trkpt lat="40.8188107002598" lon="-3.99390117551798">
        <time>2024-01-11T12:52:53Z</time>
      </trkpt>
      <trkpt lat="40.8188260836988" lon="-3.99413842833805">
        <time>2024-01-11T12:52:53Z</time>
      </trkpt>
      <trkpt lat="40.8187952014714" lon="-3.99435205310707">
        <time>2024-01-11T12:52:53Z</time>
      </trkpt>
      <trkpt lat="40.8187526373383" lon="-3.99457314921985">
        <time>2024-01-11T12:52:53Z</time>
      </trkpt>
      <trkpt lat="40.8187565354503" lon="-3.9947949386969">
        <time>2024-01-11T12:52:53Z</time>
      </trkpt>
      <trkpt lat="40.8187430755114" lon="-3.99500882309116">
        <time>2024-01-11T12:52:53Z</time>
      </trkpt>
      <trkpt lat="40.8187410990644" lon="-3.99523817072074">
        <time>2024-01-11T12:52:53Z</time>
      </trkpt>
      <trkpt lat="40.8187389903519" lon="-3.99548280816718">
        <time>2024-01-11T12:52:53Z</time>
      </trkpt>
      <trkpt lat="40.8187366833538" lon="-3.99575038034458">
        <time>2024-01-11T12:52:53Z</time>
      </trkpt>
      <trkpt lat="40.8187347054331" lon="-3.99597972790053">
        <time>2024-01-11T12:52:53Z</time>
      </trkpt>
      <trkpt lat="40.8186924020013" lon="-3.99617024305892">
        <time>2024-01-11T12:52:53Z</time>
      </trkpt>
      <trkpt lat="40.8186500322937" lon="-3.99636840287702">
        <time>2024-01-11T12:52:53Z</time>
      </trkpt>
      <trkpt lat="40.8186019203946" lon="-3.99655883067412">
        <time>2024-01-11T12:52:53Z</time>
      </trkpt>
      <trkpt lat="40.8185603418629" lon="-3.99666525120675">
        <time>2024-01-11T12:52:53Z</time>
      </trkpt>
      <trkpt lat="40.8185359227581" lon="-3.99680251181486">
        <time>2024-01-11T12:52:53Z</time>
      </trkpt>
      <trkpt lat="40.8185055636571" lon="-3.99695497520517">
        <time>2024-01-11T12:52:53Z</time>
      </trkpt>
      <trkpt lat="40.8184923637895" lon="-3.99713827872686">
        <time>2024-01-11T12:52:53Z</time>
      </trkpt>
      <trkpt lat="40.8184735538806" lon="-3.99729856058843">
        <time>2024-01-11T12:52:53Z</time>
      </trkpt>
      <trkpt lat="40.8184594288946" lon="-3.99758889230493">
        <time>2024-01-11T12:52:53Z</time>
      </trkpt>
      <trkpt lat="40.8184752011074" lon="-3.99778027526655">
        <time>2024-01-11T12:52:53Z</time>
      </trkpt>
      <trkpt lat="40.8185202764176" lon="-3.99794151367292">
        <time>2024-01-11T12:52:53Z</time>
      </trkpt>
      <trkpt lat="40.8185654175782" lon="-3.9980951073999">
        <time>2024-01-11T12:52:53Z</time>
      </trkpt>
      <trkpt lat="40.8186339220172" lon="-3.9982337595599">
        <time>2024-01-11T12:52:53Z</time>
      </trkpt>
      <trkpt lat="40.8186852671872" lon="-3.99834157131936">
        <time>2024-01-11T12:52:53Z</time>
      </trkpt>
      <trkpt lat="40.8187709303833" lon="-3.99851106472997">
        <time>2024-01-11T12:52:53Z</time>
      </trkpt>
      <trkpt lat="40.8188274880745" lon="-3.99868776826615">
        <time>2024-01-11T12:52:53Z</time>
      </trkpt>
      <trkpt lat="40.8188891919955" lon="-3.99894100845155">
        <time>2024-01-11T12:52:53Z</time>
      </trkpt>
      <trkpt lat="40.8188881337755" lon="-3.99906332731227">
        <time>2024-01-11T12:52:53Z</time>
      </trkpt>
      <trkpt lat="40.8189215916175" lon="-3.99922439336903">
        <time>2024-01-11T12:52:53Z</time>
      </trkpt>
      <trkpt lat="40.8189551153966" lon="-3.99937781464787">
        <time>2024-01-11T12:52:53Z</time>
      </trkpt>
      <trkpt lat="40.8189770894937" lon="-3.9995234168984">
        <time>2024-01-11T12:52:53Z</time>
      </trkpt>
      <trkpt lat="40.8190279701614" lon="-3.9996847447919">
        <time>2024-01-11T12:52:53Z</time>
      </trkpt>
      <trkpt lat="40.8190382620254" lon="-3.99983781794584">
        <time>2024-01-11T12:52:53Z</time>
      </trkpt>
      <trkpt lat="40.8190368718332" lon="-3.99999836176467">
        <time>2024-01-11T12:52:53Z</time>
      </trkpt>
      <trkpt lat="40.8190292100726" lon="-4.00021233299215">
        <time>2024-01-11T12:52:53Z</time>
      </trkpt>
      <trkpt lat="40.8189578605569" lon="-4.00040241017636">
        <time>2024-01-11T12:52:53Z</time>
      </trkpt>
      <trkpt lat="40.8189099407543" lon="-4.00056990101771">
        <time>2024-01-11T12:52:53Z</time>
      </trkpt>
      <trkpt lat="40.8188973976617" lon="-4.00067675556074">
        <time>2024-01-11T12:52:53Z</time>
      </trkpt>
      <trkpt lat="40.8188964038589" lon="-4.0007914294463">
        <time>2024-01-11T12:52:53Z</time>
      </trkpt>
      <trkpt lat="40.8188951448785" lon="-4.00093668302651">
        <time>2024-01-11T12:52:53Z</time>
      </trkpt>
      <trkpt lat="40.8188994947054" lon="-4.00110495862865">
        <time>2024-01-11T12:52:53Z</time>
      </trkpt>
      <trkpt lat="40.818914995893" lon="-4.00132692327798">
        <time>2024-01-11T12:52:53Z</time>
      </trkpt>
      <trkpt lat="40.8189425764356" lon="-4.00149554811145">
        <time>2024-01-11T12:52:53Z</time>
      </trkpt>
      <trkpt lat="40.8189936532717" lon="-4.00163394256798">
        <time>2024-01-11T12:52:53Z</time>
      </trkpt>
      <trkpt lat="40.8190218965809" lon="-4.00172611834331">
        <time>2024-01-11T12:52:53Z</time>
      </trkpt>
      <trkpt lat="40.8190672979714" lon="-4.00184913592747">
        <time>2024-01-11T12:52:53Z</time>
      </trkpt>
      <trkpt lat="40.8191188387217" lon="-4.00193401626973">
        <time>2024-01-11T12:52:53Z</time>
      </trkpt>
      <trkpt lat="40.8191415393206" lon="-4.00199552519995">
        <time>2024-01-11T12:52:53Z</time>
      </trkpt>
      <trkpt lat="40.8191813979765" lon="-4.00208787601717">
        <time>2024-01-11T12:52:53Z</time>
      </trkpt>
      <trkpt lat="40.8192150506295" lon="-4.00222600934447">
        <time>2024-01-11T12:52:53Z</time>
      </trkpt>
      <trkpt lat="40.8192553072423" lon="-4.00227249061971">
        <time>2024-01-11T12:52:53Z</time>
      </trkpt>
      <trkpt lat="40.8192837491168" lon="-4.00234173212104">
        <time>2024-01-11T12:52:53Z</time>
      </trkpt>
      <trkpt lat="40.8193588525981" lon="-4.00238873773967">
        <time>2024-01-11T12:52:53Z</time>
      </trkpt>
      <trkpt lat="40.81937574513" lon="-4.00245015966693">
        <time>2024-01-11T12:52:53Z</time>
      </trkpt>
      <trkpt lat="40.8193979808321" lon="-4.00256518385989">
        <time>2024-01-11T12:52:53Z</time>
      </trkpt>
      <trkpt lat="40.8194144749824" lon="-4.0026724757503">
        <time>2024-01-11T12:52:53Z</time>
      </trkpt>
      <trkpt lat="40.8194079369242" lon="-4.00275648313202">
        <time>2024-01-11T12:52:53Z</time>
      </trkpt>
      <trkpt lat="40.819401332411" lon="-4.00284813547468">
        <time>2024-01-11T12:52:53Z</time>
      </trkpt>
      <trkpt lat="40.8193945950236" lon="-4.00295507775305">
        <time>2024-01-11T12:52:53Z</time>
      </trkpt>
      <trkpt lat="40.8193876583098" lon="-4.00308495493756">
        <time>2024-01-11T12:52:53Z</time>
      </trkpt>
      <trkpt lat="40.8193396682042" lon="-4.00326008981509">
        <time>2024-01-11T12:52:53Z</time>
      </trkpt>
      <trkpt lat="40.8193272554746" lon="-4.00335165455099">
        <time>2024-01-11T12:52:53Z</time>
      </trkpt>
      <trkpt lat="40.8193093005851" lon="-4.00341255192159">
        <time>2024-01-11T12:52:53Z</time>
      </trkpt>
      <trkpt lat="40.8192797300285" lon="-4.00347327432804">
        <time>2024-01-11T12:52:53Z</time>
      </trkpt>
      <trkpt lat="40.8192323373417" lon="-4.00357960401449">
        <time>2024-01-11T12:52:53Z</time>
      </trkpt>
      <trkpt lat="40.8192140500944" lon="-4.00367872601135">
        <time>2024-01-11T12:52:53Z</time>
      </trkpt>
      <trkpt lat="40.8192015041239" lon="-4.00378558039738">
        <time>2024-01-11T12:52:53Z</time>
      </trkpt>
      <trkpt lat="40.8191542440777" lon="-4.00387661983619">
        <time>2024-01-11T12:52:53Z</time>
      </trkpt>
      <trkpt lat="40.8191418308625" lon="-4.00396818419299">
        <time>2024-01-11T12:52:53Z</time>
      </trkpt>
      <trkpt lat="40.8191119276502" lon="-4.00406713090888">
        <time>2024-01-11T12:52:53Z</time>
      </trkpt>
      <trkpt lat="40.8190644014581" lon="-4.00418874976984">
        <time>2024-01-11T12:52:53Z</time>
      </trkpt>
      <trkpt lat="40.8190514560713" lon="-4.00434147342117">
        <time>2024-01-11T12:52:53Z</time>
      </trkpt>
      <trkpt lat="40.8190386434877" lon="-4.00447890714268">
        <time>2024-01-11T12:52:53Z</time>
      </trkpt>
      <trkpt lat="40.8190316385567" lon="-4.00461642837228">
        <time>2024-01-11T12:52:53Z</time>
      </trkpt>
      <trkpt lat="40.8190130843506" lon="-4.00474612948755">
        <time>2024-01-11T12:52:53Z</time>
      </trkpt>
      <trkpt lat="40.818988189943" lon="-4.00493690235268">
        <time>2024-01-11T12:52:53Z</time>
      </trkpt>
      <trkpt lat="40.8189810513843" lon="-4.00508971326936">
        <time>2024-01-11T12:52:53Z</time>
      </trkpt>
      <trkpt lat="40.8189740457272" lon="-4.00522723430112">
        <time>2024-01-11T12:52:53Z</time>
      </trkpt>
      <trkpt lat="40.8189440083266" lon="-4.00534147002266">
        <time>2024-01-11T12:52:53Z</time>
      </trkpt>
      <trkpt lat="40.8189084292607" lon="-4.00542503833802">
        <time>2024-01-11T12:52:53Z</time>
      </trkpt>
      <trkpt lat="40.8189073641662" lon="-4.00554735699172">
        <time>2024-01-11T12:52:53Z</time>
      </trkpt>
      <trkpt lat="40.8189062323612" lon="-4.00567732055409">
        <time>2024-01-11T12:52:53Z</time>
      </trkpt>
      <trkpt lat="40.8189166494479" lon="-4.00581510436067">
        <time>2024-01-11T12:52:53Z</time>
      </trkpt>
      <trkpt lat="40.818915450742" lon="-4.00595271284611">
        <time>2024-01-11T12:52:53Z</time>
      </trkpt>
      <trkpt lat="40.8189025696364" lon="-4.00609779085232">
        <time>2024-01-11T12:52:53Z</time>
      </trkpt>
      <trkpt lat="40.8188955627806" lon="-4.00623531159174">
        <time>2024-01-11T12:52:53Z</time>
      </trkpt>
      <trkpt lat="40.8189352181444" lon="-4.0063505992848">
        <time>2024-01-11T12:52:53Z</time>
      </trkpt>
      <trkpt lat="40.8190326183445" lon="-4.00650498900749">
        <time>2024-01-11T12:52:53Z</time>
      </trkpt>
      <trkpt lat="40.819130351557" lon="-4.00662115448722">
        <time>2024-01-11T12:52:53Z</time>
      </trkpt>
      <trkpt lat="40.8192109944631" lon="-4.00669883232044">
        <time>2024-01-11T12:52:53Z</time>
      </trkpt>
      <trkpt lat="40.8193326919145" lon="-4.00673125484764">
        <time>2024-01-11T12:52:53Z</time>
      </trkpt>
      <trkpt lat="40.8194371658765" lon="-4.00674047931846">
        <time>2024-01-11T12:52:53Z</time>
      </trkpt>
      <trkpt lat="40.8195587299994" lon="-4.00678819201513">
        <time>2024-01-11T12:52:53Z</time>
      </trkpt>
      <trkpt lat="40.819628290426" lon="-4.00680453507125">
        <time>2024-01-11T12:52:53Z</time>
      </trkpt>
      <trkpt lat="40.8196972509078" lon="-4.0068896831925">
        <time>2024-01-11T12:52:53Z</time>
      </trkpt>
      <trkpt lat="40.8197252232997" lon="-4.00701244211639">
        <time>2024-01-11T12:52:53Z</time>
      </trkpt>
      <trkpt lat="40.819776626837" lon="-4.00711261725058">
        <time>2024-01-11T12:52:53Z</time>
      </trkpt>
      <trkpt lat="40.819857069338" lon="-4.00721323150447">
        <time>2024-01-11T12:52:53Z</time>
      </trkpt>
      <trkpt lat="40.8199258294357" lon="-4.00732131542553">
        <time>2024-01-11T12:52:53Z</time>
      </trkpt>
      <trkpt lat="40.8199652168797" lon="-4.00746718567003">
        <time>2024-01-11T12:52:53Z</time>
      </trkpt>
      <trkpt lat="40.8200343769738" lon="-4.00752939978455">
        <time>2024-01-11T12:52:53Z</time>
      </trkpt>
      <trkpt lat="40.8201040039857" lon="-4.00753809869133">
        <time>2024-01-11T12:52:53Z</time>
      </trkpt>
      <trkpt lat="40.8201910544249" lon="-4.00754706108787">
        <time>2024-01-11T12:52:53Z</time>
      </trkpt>
      <trkpt lat="40.8202601477588" lon="-4.00761692056635">
        <time>2024-01-11T12:52:53Z</time>
      </trkpt>
      <trkpt lat="40.8203341815057" lon="-4.00778625399296">
        <time>2024-01-11T12:52:53Z</time>
      </trkpt>
      <trkpt lat="40.8204022737212" lon="-4.00797079009623">
        <time>2024-01-11T12:52:53Z</time>
      </trkpt>
      <trkpt lat="40.8204885899926" lon="-4.00806384911116">
        <time>2024-01-11T12:52:53Z</time>
      </trkpt>
      <trkpt lat="40.8205687646329" lon="-4.00819504599143">
        <time>2024-01-11T12:52:53Z</time>
      </trkpt>
      <trkpt lat="40.8206317159699" lon="-4.00830304418713">
        <time>2024-01-11T12:52:53Z</time>
      </trkpt>
      <trkpt lat="40.8207178984333" lon="-4.00841139418761">
        <time>2024-01-11T12:52:53Z</time>
      </trkpt>
      <trkpt lat="40.820792732259" lon="-4.00848898814807">
        <time>2024-01-11T12:52:53Z</time>
      </trkpt>
      <trkpt lat="40.8208498087267" lon="-4.00860454419811">
        <time>2024-01-11T12:52:53Z</time>
      </trkpt>
      <trkpt lat="40.8208950023172" lon="-4.00875050513447">
        <time>2024-01-11T12:52:53Z</time>
      </trkpt>
      <trkpt lat="40.8209685667571" lon="-4.00897335742661">
        <time>2024-01-11T12:52:53Z</time>
      </trkpt>
      <trkpt lat="40.8210709025172" lon="-4.00922723067533">
        <time>2024-01-11T12:52:53Z</time>
      </trkpt>
      <trkpt lat="40.8211730371977" lon="-4.0095040401957">
        <time>2024-01-11T12:52:53Z</time>
      </trkpt>
      <trkpt lat="40.8212760402879" lon="-4.00968146324508">
        <time>2024-01-11T12:52:53Z</time>
      </trkpt>
      <trkpt lat="40.8213561461795" lon="-4.00982030879326">
        <time>2024-01-11T12:52:53Z</time>
      </trkpt>
      <trkpt lat="40.8214186947497" lon="-4.00997418094847">
        <time>2024-01-11T12:52:53Z</time>
      </trkpt>
      <trkpt lat="40.8214690255691" lon="-4.01019668407503">
        <time>2024-01-11T12:52:53Z</time>
      </trkpt>
      <trkpt lat="40.8215662866598" lon="-4.0103663756885">
        <time>2024-01-11T12:52:53Z</time>
      </trkpt>
      <trkpt lat="40.8215844280399" lon="-4.01048846878632">
        <time>2024-01-11T12:52:53Z</time>
      </trkpt>
      <trkpt lat="40.8216784825182" lon="-4.0105870772911">
        <time>2024-01-11T12:52:53Z</time>
      </trkpt>
      <trkpt lat="40.8217908921318" lon="-4.01065423211643">
        <time>2024-01-11T12:52:53Z</time>
      </trkpt>
      <trkpt lat="40.8219410669018" lon="-4.01071006075194">
        <time>2024-01-11T12:52:53Z</time>
      </trkpt>
      <trkpt lat="40.822039935863" lon="-4.01077502718245">
        <time>2024-01-11T12:52:53Z</time>
      </trkpt>
      <trkpt lat="40.8221871498126" lon="-4.01082486145584">
        <time>2024-01-11T12:52:53Z</time>
      </trkpt>
      <trkpt lat="40.8223045328732" lon="-4.01096633693985">
        <time>2024-01-11T12:52:53Z</time>
      </trkpt>
      <trkpt lat="40.822332099167" lon="-4.01113497409169">
        <time>2024-01-11T12:52:53Z</time>
      </trkpt>
      <trkpt lat="40.8223889720463" lon="-4.01127347096007">
        <time>2024-01-11T12:52:53Z</time>
      </trkpt>
      <trkpt lat="40.8224455099217" lon="-4.01145019460268">
        <time>2024-01-11T12:52:53Z</time>
      </trkpt>
      <trkpt lat="40.8224969094961" lon="-4.01155037721975">
        <time>2024-01-11T12:52:53Z</time>
      </trkpt>
      <trkpt lat="40.8225479740671" lon="-4.01168878658657">
        <time>2024-01-11T12:52:53Z</time>
      </trkpt>
      <trkpt lat="40.8225519061139" lon="-4.01190294372297">
        <time>2024-01-11T12:52:53Z</time>
      </trkpt>
      <trkpt lat="40.8226145188479" lon="-4.01204917523841">
        <time>2024-01-11T12:52:53Z</time>
      </trkpt>
      <trkpt lat="40.8226652477196" lon="-4.01222581187891">
        <time>2024-01-11T12:52:53Z</time>
      </trkpt>
      <trkpt lat="40.8227160433486" lon="-4.01239480344706">
        <time>2024-01-11T12:52:53Z</time>
      </trkpt>
      <trkpt lat="40.8227436075336" lon="-4.0125634421934">
        <time>2024-01-11T12:52:53Z</time>
      </trkpt>
      <trkpt lat="40.8228120942663" lon="-4.0127021176723">
        <time>2024-01-11T12:52:53Z</time>
      </trkpt>
      <trkpt lat="40.8228564778044" lon="-4.01293982983412">
        <time>2024-01-11T12:52:53Z</time>
      </trkpt>
      <trkpt lat="40.8229106940508" lon="-4.01310278370213">
        <time>2024-01-11T12:52:53Z</time>
      </trkpt>
      <trkpt lat="40.8229219487022" lon="-4.01327947059213">
        <time>2024-01-11T12:52:53Z</time>
      </trkpt>
      <trkpt lat="40.82292160961" lon="-4.01346077385325">
        <time>2024-01-11T12:52:53Z</time>
      </trkpt>
      <trkpt lat="40.822954980021" lon="-4.01362950189391">
        <time>2024-01-11T12:52:53Z</time>
      </trkpt>
      <trkpt lat="40.8230001671459" lon="-4.01377547075526">
        <time>2024-01-11T12:52:53Z</time>
      </trkpt>
      <trkpt lat="40.8230275950272" lon="-4.01395940149175">
        <time>2024-01-11T12:52:53Z</time>
      </trkpt>
      <trkpt lat="40.8230848673222" lon="-4.01405202991153">
        <time>2024-01-11T12:52:53Z</time>
      </trkpt>
      <trkpt lat="40.8231486187863" lon="-4.01406829307461">
        <time>2024-01-11T12:52:53Z</time>
      </trkpt>
      <trkpt lat="40.8232585640287" lon="-4.01411584507435">
        <time>2024-01-11T12:52:53Z</time>
      </trkpt>
      <trkpt lat="40.8233452780681" lon="-4.01416304359356">
        <time>2024-01-11T12:52:53Z</time>
      </trkpt>
      <trkpt lat="40.8234317234723" lon="-4.01424082389612">
        <time>2024-01-11T12:52:53Z</time>
      </trkpt>
      <trkpt lat="40.8234252441092" lon="-4.01431718961672">
        <time>2024-01-11T12:52:53Z</time>
      </trkpt>
      <trkpt lat="40.8234241023264" lon="-4.01444716164508">
        <time>2024-01-11T12:52:53Z</time>
      </trkpt>
      <trkpt lat="40.8234346431616" lon="-4.01456966514499">
        <time>2024-01-11T12:52:53Z</time>
      </trkpt>
      <trkpt lat="40.823443907274" lon="-4.01483743156241">
        <time>2024-01-11T12:52:53Z</time>
      </trkpt>
      <trkpt lat="40.823476603569" lon="-4.01508261575949">
        <time>2024-01-11T12:52:53Z</time>
      </trkpt>
      <trkpt lat="40.8234694514713" lon="-4.01523543560501">
        <time>2024-01-11T12:52:53Z</time>
      </trkpt>
      <trkpt lat="40.8234215773927" lon="-4.01539528120308">
        <time>2024-01-11T12:52:53Z</time>
      </trkpt>
      <trkpt lat="40.823402674815" lon="-4.01556321463428">
        <time>2024-01-11T12:52:53Z</time>
      </trkpt>
      <trkpt lat="40.8234188205032" lon="-4.01570874301928">
        <time>2024-01-11T12:52:53Z</time>
      </trkpt>
      <trkpt lat="40.8234579953878" lon="-4.0158775619445">
        <time>2024-01-11T12:52:53Z</time>
      </trkpt>
      <trkpt lat="40.8234626596381" lon="-4.01600762254539">
        <time>2024-01-11T12:52:53Z</time>
      </trkpt>
      <trkpt lat="40.8234328133874" lon="-4.01609892461417">
        <time>2024-01-11T12:52:53Z</time>
      </trkpt>
      <trkpt lat="40.823396890136" lon="-4.01622071963646">
        <time>2024-01-11T12:52:53Z</time>
      </trkpt>
      <trkpt lat="40.8234071599068" lon="-4.01637380495543">
        <time>2024-01-11T12:52:53Z</time>
      </trkpt>
      <trkpt lat="40.8234405933301" lon="-4.01653489019414">
        <time>2024-01-11T12:52:53Z</time>
      </trkpt>
      <trkpt lat="40.8234389778315" lon="-4.01671838003066">
        <time>2024-01-11T12:52:53Z</time>
      </trkpt>
      <trkpt lat="40.8234260831081" lon="-4.01686346551538">
        <time>2024-01-11T12:52:53Z</time>
      </trkpt>
      <trkpt lat="40.8234402560976" lon="-4.01695802023936">
        <time>2024-01-11T12:52:53Z</time>
      </trkpt>
      <trkpt lat="40.8234276706748" lon="-4.01697567800978">
        <time>2024-01-11T12:52:53Z</time>
      </trkpt>
      <trkpt lat="40.8234141127593" lon="-4.01697547089431">
        <time>2024-01-11T12:52:53Z</time>
      </trkpt>
      <trkpt lat="40.8234010793661" lon="-4.01698368159066">
        <time>2024-01-11T12:52:53Z</time>
      </trkpt>
      <trkpt lat="40.8234324493268" lon="-4.01703178026398">
        <time>2024-01-11T12:52:53Z</time>
      </trkpt>
      <trkpt lat="40.8234284129675" lon="-4.0171051020425">
        <time>2024-01-11T12:52:53Z</time>
      </trkpt>
      <trkpt lat="40.823417774495" lon="-4.0171124878953">
        <time>2024-01-11T12:52:53Z</time>
      </trkpt>
    </trkseg>
  </trk>
</gpx>
